GFSNGP_250_spd_057.txt.gz
Wind_Speed
48 48 33 34 30 30 27 25 22 24 23 26 28 29 31 34 35 37 38 29 26 30 34 38 41 43 48 51 54 58 61 64 66 67 67 71 77 82 86 89 92 95 99 101
57 45 32 33 29 27 26 23 22 25 28 28 32 32 32 32 31 31 31 32 33 35 38 43 45 47 51 56 59 62 64 66 68 69 73 77 83 87 91 92 95 98 101 104
58 51 32 30 36 30 29 28 23 27 30 31 30 28 29 27 28 31 33 35 38 41 43 46 48 52 56 59 61 63 67 70 72 75 79 83 88 92 93 95 99 102 105 108
55 48 27 39 37 33 31 29 30 31 33 31 29 28 25 28 31 34 37 39 42 44 47 50 53 55 57 60 63 67 71 74 77 80 84 88 93 92 96 100 102 106 110 113
59 44 31 36 41 36 34 30 34 35 33 30 30 30 30 32 34 37 40 42 45 48 51 54 55 58 62 65 68 72 75 78 81 85 89 92 94 98 102 103 107 109 113 113
52 36 32 41 40 40 36 33 39 34 33 32 32 33 35 35 37 40 43 46 49 52 54 56 59 61 64 67 72 75 78 81 86 90 92 95 99 102 104 107 109 112 112 117
56 49 37 42 44 40 38 43 38 36 36 36 37 38 39 40 41 44 47 50 52 54 57 59 61 65 68 72 75 78 82 86 90 93 96 99 103 105 108 110 112 112 116 121
60 47 36 45 45 45 45 42 41 38 38 41 42 42 44 45 47 49 51 54 56 58 60 63 66 69 73 75 79 82 87 91 94 96 100 103 106 108 111 111 111 118 120 119
58 47 39 45 47 46 46 44 43 42 42 44 46 47 49 50 52 54 57 59 60 62 65 67 70 74 76 79 83 88 92 95 96 99 102 106 107 110 110 112 117 120 120 118
50 39 40 43 47 49 48 47 46 46 46 47 48 50 52 55 57 59 61 62 64 66 69 72 75 78 81 85 89 93 96 96 99 102 106 108 110 109 111 117 121 121 119 118
46 49 51 46 48 50 52 51 50 49 50 51 51 52 54 56 58 60 62 64 67 70 73 75 78 82 87 91 94 95 97 100 103 106 108 109 110 113 118 121 125 123 121 118
47 49 46 48 51 52 54 55 55 55 55 54 54 54 56 58 60 62 64 67 70 73 76 79 84 88 90 92 94 97 101 103 107 108 109 110 113 116 122 125 123 121 120 119
56 52 53 52 52 54 55 56 56 58 58 57 57 58 60 62 64 66 68 70 73 75 79 83 86 89 90 94 98 101 103 107 106 107 110 115 118 120 116 116 119 117 117 112
64 61 57 58 54 55 57 57 59 60 60 59 61 62 63 65 67 68 70 73 76 80 84 87 89 92 95 101 103 106 106 106 106 110 115 117 119 120 118 116 111 109 110 104
59 60 59 59 57 56 57 57 59 61 63 64 64 66 69 70 72 74 77 80 83 87 89 91 94 97 102 103 107 105 106 108 111 115 117 120 121 118 117 114 110 104 97 93
43 48 53 57 57 58 60 59 59 62 65 67 68 71 73 75 77 80 84 87 89 90 92 96 99 104 105 106 105 106 108 111 114 116 119 120 117 116 114 110 105 98 93 87
48 50 55 58 57 57 59 60 61 63 65 66 68 71 74 78 81 84 87 89 90 94 97 101 105 107 105 105 106 108 111 115 117 118 118 116 114 112 108 103 97 90 86 80
61 61 63 68 69 67 62 60 63 64 66 68 72 76 79 82 84 87 89 93 96 99 103 107 107 104 104 107 109 112 114 116 118 117 115 113 110 106 102 96 90 84 79 75
72 77 69 60 60 64 64 64 69 70 71 75 79 81 84 88 91 95 98 99 101 104 107 105 103 106 107 108 112 114 116 116 116 114 112 108 105 100 94 89 83 78 74 71
77 66 61 61 63 65 68 72 77 78 79 83 85 88 90 93 97 98 101 102 104 104 103 105 107 106 108 112 114 116 115 114 112 111 107 103 98 93 86 81 77 75 72 69
61 61 63 66 69 72 74 76 80 84 87 88 89 91 94 98 100 100 100 100 100 104 105 105 106 109 112 114 115 113 112 111 109 105 101 96 91 85 80 76 74 71 69 65
58 62 66 68 68 69 70 73 76 80 83 87 91 94 96 96 96 95 96 100 103 105 106 107 110 112 114 114 111 111 110 107 103 99 95 90 84 80 76 72 70 68 65 63
62 65 67 68 69 72 76 79 82 84 87 88 90 91 91 92 96 99 102 106 106 107 109 110 111 112 112 111 111 108 105 101 97 93 88 83 79 75 71 68 66 64 62 58
64 67 70 73 77 78 79 81 82 83 85 86 89 91 95 99 101 105 107 107 108 109 110 110 110 110 110 109 106 102 99 96 92 87 82 78 73 70 67 65 63 61 57 54
68 70 72 74 76 78 80 82 84 85 88 91 95 98 101 104 106 107 107 108 108 109 109 108 109 108 106 104 100 97 94 90 85 81 77 72 69 66 63 62 60 57 53 50
72 74 76 78 80 81 83 86 89 92 94 97 100 102 106 107 106 107 107 107 107 107 108 107 105 103 101 98 95 91 87 83 80 75 70 67 64 62 61 59 57 53 50 48
75 77 79 82 84 87 90 93 95 97 100 102 104 104 104 105 105 105 104 104 104 105 103 101 99 97 94 91 88 83 80 77 73 69 66 63 61 59 57 56 53 50 47 44

GFSNGP_250_spd_060.txt.gz
Wind_Speed
44 45 48 49 43 29 24 25 26 34 29 32 29 30 32 30 32 35 37 39 38 32 29 29 29 32 36 41 46 50 51 56 59 62 67 73 77 78 80 81 83 86 87 92
44 48 49 51 51 34 26 26 26 26 29 32 33 34 33 32 33 36 37 36 34 32 28 30 33 37 41 46 50 53 57 59 63 67 71 74 77 80 82 83 85 88 94 97
46 48 49 49 51 33 30 26 25 27 33 33 33 32 31 34 36 35 33 33 33 33 34 36 39 43 47 50 54 58 61 64 68 72 73 76 79 80 82 86 89 94 97 101
48 48 51 50 51 39 30 30 29 32 37 37 33 32 32 35 34 33 32 33 35 37 40 43 45 48 51 54 58 61 64 67 69 71 75 77 79 82 86 90 95 97 101 104
50 47 47 43 51 53 41 36 37 38 35 33 34 36 36 35 35 35 34 35 38 42 45 47 49 52 56 59 60 63 65 68 71 75 77 79 82 87 91 95 97 101 103 106
51 51 43 50 51 51 42 32 46 38 36 36 38 38 37 37 36 37 38 40 42 45 47 50 53 56 58 61 63 66 69 72 74 77 79 82 87 92 95 97 100 101 106 108
56 51 45 51 53 53 50 41 41 38 39 40 40 41 40 39 40 41 42 44 45 48 50 53 56 59 61 64 66 68 71 74 76 79 83 88 92 94 96 99 101 104 105 105
52 49 48 54 49 53 50 36 39 41 41 45 45 44 43 43 43 45 46 49 51 53 55 58 61 63 65 66 69 71 74 76 80 84 87 89 92 96 99 101 104 105 104 107
54 49 52 55 56 56 46 38 37 42 43 44 47 48 47 47 47 48 49 52 54 57 59 61 62 64 66 69 72 74 76 80 83 86 89 92 95 100 102 105 106 105 108 110
54 53 56 59 55 57 45 45 42 42 47 47 47 50 51 51 51 52 53 56 58 59 60 62 65 68 70 72 74 77 80 84 87 90 93 97 102 102 105 107 106 110 111 112
55 54 58 63 59 52 48 46 46 42 46 50 51 51 54 56 57 58 58 58 59 61 64 67 69 70 72 75 78 81 86 90 92 95 98 102 104 106 107 108 113 112 114 117
55 60 62 61 57 56 44 44 48 50 50 52 55 58 58 60 62 62 63 63 64 65 68 70 73 76 78 81 85 89 92 93 95 99 102 105 107 105 108 112 113 116 119 121
61 61 61 61 63 63 58 49 50 56 57 58 60 60 62 62 64 66 68 69 70 71 73 76 80 82 84 87 90 91 92 97 102 103 105 109 106 107 107 108 114 118 121 122
58 61 62 65 66 66 70 68 68 64 61 62 66 65 65 66 68 69 71 74 76 78 80 83 85 86 88 89 90 95 100 103 103 105 108 107 110 110 110 110 109 111 118 119
61 61 64 68 68 69 67 62 55 56 59 60 60 63 65 67 70 73 74 76 78 81 83 86 88 90 91 93 98 104 105 104 106 107 108 112 111 112 113 114 113 113 111 109
59 59 63 65 65 58 50 46 49 52 57 61 64 68 70 70 71 73 77 79 82 84 87 89 91 92 96 100 105 106 104 105 105 110 112 112 113 114 114 114 114 113 107 100
63 64 61 60 50 46 49 49 50 59 67 68 73 75 75 76 79 79 78 81 84 87 89 92 95 98 104 106 105 105 106 106 111 113 113 114 115 115 114 114 111 105 100 94
62 62 54 51 53 56 56 60 68 67 68 65 62 62 67 71 77 82 84 85 88 92 95 98 102 103 104 105 105 105 108 112 114 115 115 116 116 115 113 109 104 98 93 89
57 57 58 62 66 64 68 73 77 79 76 70 67 68 72 76 77 78 80 83 87 90 94 97 101 103 104 104 105 110 112 115 116 116 117 116 114 112 108 102 96 91 87 83
65 65 66 69 67 71 76 84 86 84 78 72 73 76 78 78 79 81 84 87 91 95 98 100 101 102 102 108 111 112 115 116 117 117 116 114 111 107 101 95 89 86 83 80
66 68 68 70 77 81 81 87 85 78 74 75 77 80 81 82 84 87 91 96 96 96 97 99 101 105 108 111 113 116 116 116 116 114 112 109 104 99 94 89 86 83 80 76
72 74 80 85 88 88 84 75 72 73 75 78 81 84 86 89 92 94 95 95 96 98 100 104 107 110 112 114 116 115 115 114 112 111 106 101 96 92 89 86 83 79 75 72
74 77 76 71 70 69 69 70 72 75 78 80 83 86 88 90 93 95 96 98 100 104 107 110 111 113 115 115 114 113 111 110 108 103 98 94 91 88 85 83 79 75 72 67
65 65 65 67 69 70 73 76 78 81 84 86 89 90 92 93 94 97 100 104 107 109 111 112 113 113 112 111 110 109 107 104 100 97 93 90 87 84 80 77 74 70 65 62
67 66 68 71 74 78 80 82 84 85 87 88 90 92 95 98 101 103 106 108 110 111 111 110 109 109 107 107 107 105 101 97 94 91 88 85 82 79 75 71 67 64 61 58
70 72 74 76 79 83 84 85 86 89 92 95 96 98 100 103 106 107 107 107 107 106 105 106 106 106 105 104 101 98 94 91 89 86 83 80 76 73 69 65 62 59 57 53
76 79 81 83 83 85 88 90 93 94 96 98 100 102 104 104 103 104 103 102 103 103 104 104 103 102 99 97 94 92 89 86 83 81 77 73 69 66 63 59 57 55 52 49

GFSNGP_250_spd_063.txt.gz
Wind_Speed
41 41 42 43 34 41 39 36 29 33 30 34 35 32 29 32 33 34 37 39 40 40 37 38 39 37 35 34 37 40 45 48 50 55 59 62 64 68 70 75 80 83 85 89
43 42 44 39 33 41 45 37 37 31 33 36 33 32 31 30 33 36 36 35 36 38 38 39 38 35 38 41 43 45 48 51 54 58 61 64 66 70 74 79 81 85 86 88
45 45 43 38 45 40 47 42 36 27 33 35 37 34 32 32 33 35 37 38 38 38 37 38 37 37 39 42 46 49 51 54 58 61 64 67 71 74 76 80 82 85 87 87
49 47 42 47 40 48 46 45 37 32 32 37 35 34 36 38 39 37 38 39 39 39 39 39 40 41 44 47 50 52 55 59 62 65 68 71 73 75 79 81 83 85 86 90
49 47 40 40 47 46 47 46 40 38 37 29 35 38 40 40 41 40 40 41 39 39 41 43 44 46 49 52 55 57 60 62 65 67 70 73 75 78 80 82 85 86 89 94
48 47 42 46 45 46 49 45 42 43 41 34 34 38 42 43 42 42 43 44 45 44 42 44 47 50 52 54 57 60 62 64 67 70 73 75 77 79 82 84 87 90 95 99
47 46 42 42 47 51 47 47 47 43 41 38 36 40 41 43 44 45 45 47 48 49 50 50 51 53 56 58 60 63 66 68 70 72 75 77 78 81 84 88 91 94 98 102
49 48 43 51 51 48 51 52 48 44 42 40 37 38 45 46 46 47 48 49 52 53 54 54 55 56 59 61 63 66 67 69 72 75 77 79 82 87 90 92 92 97 101 104
52 53 55 52 52 51 51 51 50 49 47 43 43 44 43 48 49 49 50 52 53 55 58 58 59 61 62 64 65 68 70 73 76 78 80 83 87 92 93 93 98 103 102 102
58 56 56 56 54 54 57 52 49 51 51 48 47 49 47 45 47 52 53 54 56 58 59 62 65 67 69 70 71 73 75 78 80 83 85 89 92 94 94 100 105 106 104 106
57 55 58 59 59 59 58 52 49 53 54 52 52 49 50 50 48 50 54 57 60 62 64 66 68 69 71 74 76 79 82 84 86 88 91 93 95 96 102 106 107 106 109 109
58 63 63 58 61 60 59 56 55 56 57 56 54 50 49 53 57 57 58 59 62 65 68 70 72 74 77 80 82 84 85 86 88 90 93 94 97 103 108 108 107 111 112 115
59 61 61 59 58 61 61 60 62 61 59 58 57 61 70 66 64 61 58 57 57 60 64 68 72 76 79 82 84 85 87 89 91 93 95 99 105 106 106 108 112 114 118 119
58 57 56 58 60 63 68 64 62 59 58 63 67 68 64 54 52 53 56 60 63 66 70 74 77 80 84 87 89 90 90 91 94 98 103 104 103 105 106 109 111 117 117 118
59 59 62 65 63 63 63 62 62 64 68 70 65 62 58 54 49 60 67 71 74 77 79 81 82 83 87 89 91 94 96 98 99 99 100 103 104 107 109 111 113 114 115 115
62 64 63 62 62 60 62 62 64 64 63 68 67 64 59 56 57 64 72 69 68 71 70 71 75 79 82 84 86 89 91 94 98 101 102 104 108 111 113 113 114 114 111 107
68 66 65 64 63 64 68 64 65 65 68 71 68 62 69 69 69 73 72 74 70 70 73 77 81 84 86 88 90 92 97 101 101 103 106 109 111 114 114 114 114 110 107 103
68 67 69 69 69 69 69 71 69 65 69 68 67 74 74 79 77 81 83 81 79 79 82 84 86 88 90 93 95 99 101 103 105 108 110 114 115 115 115 112 108 106 103 99
69 70 71 69 67 68 69 69 67 64 62 66 70 74 78 85 92 95 91 87 86 87 89 90 91 92 94 97 99 103 106 108 110 113 115 116 115 113 110 107 105 102 97 92
67 70 71 69 65 63 61 62 65 70 73 73 77 83 85 91 96 93 92 91 91 92 92 93 95 98 101 104 106 107 110 113 115 115 115 113 111 108 106 104 100 95 90 85
63 64 63 65 67 66 64 68 70 73 78 83 87 90 94 92 86 87 89 91 93 95 96 98 102 104 105 107 111 113 115 115 114 113 111 109 107 106 103 98 93 88 84 80
64 65 66 66 67 70 71 72 76 81 83 84 86 85 85 87 88 90 93 94 97 99 102 103 105 109 112 113 115 115 113 112 111 109 107 106 104 101 95 90 86 83 80 77
63 66 68 69 69 73 76 79 82 75 80 84 86 87 88 89 91 93 97 99 102 104 107 110 113 114 114 114 113 111 110 108 107 106 104 101 96 92 88 85 82 80 77 73
68 69 72 71 75 77 80 84 85 88 92 94 89 88 91 93 95 98 101 103 107 110 112 112 112 113 111 111 109 108 106 105 103 101 97 93 90 87 84 82 79 76 71 68
74 77 76 76 75 78 83 88 89 90 90 90 92 93 95 98 101 103 106 110 110 110 110 109 108 108 108 107 106 105 103 101 98 95 92 89 86 83 80 77 73 70 67 64
72 73 77 80 79 80 82 83 85 86 89 92 94 96 98 101 104 106 107 107 106 105 105 106 106 105 104 103 101 99 97 94 91 89 87 84 82 78 75 72 68 65 63 60
77 80 82 82 83 83 84 86 88 90 92 94 96 98 101 103 103 103 103 102 103 103 102 101 100 99 97 95 93 91 89 88 86 84 81 78 74 72 69 66 64 61 57 54

GFSNGP_250_spd_069.txt.gz
Wind_Speed
43 44 43 40 37 34 33 32 33 35 34 34 27 34 33 30 28 27 32 33 34 36 39 41 42 39 40 40 41 44 45 45 45 47 50 51 53 54 56 56 59 64 68 74
48 48 46 42 41 39 36 37 37 37 38 36 28 34 33 33 32 31 33 34 37 38 38 42 43 40 42 42 43 45 45 47 46 50 52 53 54 57 59 61 65 69 73 77
49 52 48 44 44 41 40 40 39 39 41 39 32 36 36 34 35 35 32 35 43 42 41 40 42 43 45 45 44 43 45 46 49 49 50 53 56 59 63 66 69 72 75 78
55 54 48 44 47 44 44 42 42 43 42 40 37 38 40 38 36 40 40 36 37 44 46 46 46 47 48 48 47 47 48 49 50 52 54 57 60 62 66 70 73 75 78 81
57 53 51 49 48 49 46 46 47 44 42 40 41 42 41 41 40 41 40 40 40 41 44 51 51 52 52 52 53 53 53 54 55 56 57 60 64 66 69 72 75 78 81 84
58 53 51 51 53 54 51 42 54 44 40 41 43 43 41 42 43 44 44 43 44 43 44 46 49 54 56 58 58 59 60 61 62 63 65 67 69 71 73 76 79 83 86 89
58 53 52 53 53 58 52 51 52 47 42 43 46 45 45 45 47 46 46 48 50 51 52 50 49 50 51 51 54 56 59 62 64 66 69 72 74 76 78 81 83 85 89 91
61 56 56 56 57 56 54 53 50 49 50 51 50 49 46 49 50 49 48 51 54 54 54 58 56 54 52 57 59 63 65 68 70 72 74 76 79 81 82 82 84 88 92 95
65 59 59 60 60 58 58 57 56 55 55 53 52 52 52 54 54 54 53 54 56 58 62 62 60 53 54 57 61 64 64 64 59 57 61 67 71 75 80 85 89 92 95 97
64 58 59 60 60 60 60 58 58 55 58 53 52 53 56 58 58 58 59 58 60 62 66 64 59 56 58 63 63 58 52 50 54 57 62 68 76 81 81 84 90 93 92 94
62 62 63 61 63 62 60 60 59 59 59 54 55 58 60 62 63 63 60 61 62 64 64 62 60 64 69 72 66 61 60 62 63 67 73 77 82 86 81 84 87 87 89 90
63 66 64 64 66 62 62 62 58 58 59 59 61 63 65 63 65 64 63 64 66 68 64 70 70 74 72 70 70 69 66 69 72 77 82 84 88 91 85 81 83 84 87 92
71 67 66 64 64 61 57 59 59 60 61 61 63 65 66 66 66 67 67 68 68 71 74 79 77 77 71 70 67 68 73 74 80 84 88 88 89 82 81 84 89 91 97 102
64 64 64 63 61 60 59 60 60 62 65 64 65 66 66 68 70 68 68 71 74 76 75 78 75 73 71 71 73 74 76 76 76 75 78 79 86 92 94 95 98 100 103 107
66 66 64 60 62 62 61 62 64 66 66 66 67 67 68 71 72 74 74 75 77 79 78 75 72 70 70 73 78 80 79 79 78 86 90 96 99 103 105 103 104 108 113 113
67 66 64 63 62 62 64 64 67 69 71 70 72 72 73 74 76 77 77 80 79 79 79 78 75 75 77 81 83 86 88 91 95 98 102 107 110 110 109 111 114 115 117 118
70 69 68 66 63 64 66 68 70 72 73 74 75 75 76 79 80 80 79 82 81 82 84 85 81 81 84 87 90 93 96 100 101 105 110 111 110 112 115 117 118 119 119 117
69 67 65 66 68 69 70 72 74 75 76 76 78 79 81 83 82 83 82 84 84 83 80 79 83 86 88 90 95 97 100 105 108 108 108 111 114 116 118 120 120 119 116 113
69 69 70 70 71 71 74 76 76 77 79 79 81 83 85 85 83 83 83 84 85 85 83 85 87 92 94 97 99 102 108 111 111 113 115 116 119 121 121 120 117 114 112 111
71 73 75 75 76 77 77 77 79 80 81 83 85 88 85 83 82 80 80 83 83 85 88 91 96 98 101 104 108 111 112 111 115 118 118 119 119 119 117 114 113 112 110 107
73 75 78 78 81 80 79 79 82 83 85 87 88 86 83 80 82 81 80 83 86 89 92 96 99 100 103 105 107 109 113 116 117 117 119 118 116 114 113 111 109 106 102 97
77 79 80 82 82 82 82 83 84 87 89 87 84 80 79 80 80 82 86 89 92 94 96 98 99 102 105 107 109 112 113 115 118 117 116 114 113 112 110 107 104 99 95 91
80 81 82 82 83 84 84 86 89 86 81 81 78 79 80 82 85 91 93 95 95 94 96 99 102 104 106 109 111 114 115 115 114 113 112 110 108 106 102 98 94 91 88 85
82 83 84 85 85 86 89 87 83 81 81 81 83 84 89 92 94 93 92 95 97 98 99 100 103 107 109 110 110 111 111 111 111 109 107 103 100 97 93 90 87 84 81 78
82 84 85 85 86 84 83 82 79 78 80 83 85 87 87 88 90 93 95 95 97 100 101 104 105 107 108 109 109 109 108 106 103 100 98 95 91 88 85 82 79 77 74 71
80 81 80 79 78 76 77 78 81 83 83 83 84 85 88 92 93 94 96 98 99 101 103 103 104 105 106 105 103 100 99 97 94 92 89 87 83 80 78 75 73 70 67 64
74 73 73 75 75 78 80 81 82 83 84 86 89 90 91 92 93 95 96 98 100 102 102 102 102 99 97 96 94 92 90 89 87 84 81 77 75 73 71 68 66 63 60 57

GFSNGP_250_spd_072.txt.gz
Wind_Speed
52 51 45 43 35 40 37 39 38 37 35 33 33 30 33 34 32 31 33 32 34 30 28 35 34 39 41 43 43 40 41 41 41 43 49 54 52 52 54 55 56 56 57 60
52 51 49 45 40 37 40 44 43 40 38 37 36 34 34 34 35 32 35 32 34 32 29 33 35 42 46 45 45 42 40 40 45 50 51 54 56 56 56 56 56 58 60 62
52 57 54 42 42 39 45 43 43 40 42 42 38 38 37 37 35 35 37 38 35 35 32 29 31 34 40 46 48 49 51 52 54 55 57 57 59 60 60 61 62 64 65 67
57 59 49 46 46 45 46 47 45 44 47 45 42 42 42 40 37 37 40 41 41 39 38 38 37 38 38 39 41 46 51 53 54 57 59 61 63 65 66 68 68 70 73 75
59 55 55 49 49 49 50 49 48 48 49 45 47 44 46 43 44 43 44 44 44 43 45 44 44 44 46 48 47 49 49 51 52 54 57 60 63 66 69 70 71 72 73 74
65 57 53 54 55 55 54 46 50 53 51 51 50 46 47 45 50 46 46 49 49 48 49 48 50 51 51 54 54 56 59 53 54 57 60 64 66 68 69 71 71 72 75 75
73 68 60 59 61 63 55 51 60 53 54 51 50 45 45 49 49 50 51 50 51 52 52 53 55 54 55 59 60 61 57 55 55 56 59 63 64 66 67 65 65 68 70 72
71 71 60 58 66 62 59 61 57 55 54 52 50 50 49 52 54 53 52 53 54 57 59 59 60 57 58 59 62 61 57 57 62 67 70 62 60 62 62 65 70 72 75 81
78 71 68 65 65 68 66 60 59 57 57 57 55 54 52 57 57 56 53 55 58 60 62 62 63 60 60 59 64 62 59 63 70 74 68 63 62 65 65 72 77 81 84 89
79 75 75 73 73 69 69 65 63 59 61 60 55 55 56 58 59 58 60 58 61 63 64 65 65 65 64 67 68 63 66 75 76 74 71 69 67 68 71 77 80 82 87 91
76 75 76 74 73 73 70 66 64 60 60 60 60 59 61 61 63 60 62 63 63 67 68 67 68 69 69 72 70 71 78 78 76 73 72 70 70 74 76 80 81 83 81 84
73 75 74 75 73 72 69 68 65 62 64 66 67 67 64 67 65 64 64 66 67 71 72 71 72 73 73 75 76 79 77 76 74 71 70 70 73 78 82 85 89 86 86 91
73 74 70 73 76 73 70 67 64 64 67 69 69 68 69 72 68 65 66 70 72 76 76 74 75 76 78 79 82 80 76 74 75 75 76 78 80 85 89 90 90 89 98 101
75 69 72 71 68 70 69 68 66 68 68 69 72 72 73 69 67 69 70 74 78 79 79 79 79 81 82 85 85 81 80 78 80 79 81 86 89 90 90 91 97 103 107 113
75 73 71 70 67 66 68 70 72 72 72 71 71 71 70 68 70 73 77 79 80 82 84 84 86 88 90 88 88 83 82 85 88 89 91 92 95 98 103 107 111 112 116 117
71 75 72 70 69 67 67 67 68 69 70 70 68 69 70 72 75 78 80 81 84 85 86 89 91 94 94 91 88 87 90 91 91 94 98 101 103 107 111 114 116 120 119 117
73 69 69 69 68 68 68 67 68 69 70 69 71 72 73 75 79 80 84 85 86 87 90 93 95 96 90 86 86 89 90 93 97 99 103 108 111 113 116 118 117 116 117 117
71 69 67 66 65 66 68 69 70 72 74 75 74 75 78 81 81 83 87 88 90 93 95 97 96 88 86 87 89 93 95 99 103 104 110 114 116 116 115 116 115 117 119 119
75 70 67 67 68 70 71 72 74 76 77 78 80 81 84 85 86 89 89 91 95 97 99 95 89 87 87 91 94 93 97 104 109 112 114 113 113 113 114 117 118 118 117 116
77 73 71 72 72 73 74 76 78 80 82 83 84 89 89 89 92 90 92 95 96 97 94 89 89 90 94 95 97 103 108 113 112 111 111 110 114 117 117 116 115 115 115 114
79 78 77 77 75 75 76 79 82 84 86 90 89 90 90 92 94 94 95 97 97 96 93 94 94 96 101 104 107 109 108 109 110 110 114 115 115 115 115 114 114 114 112 109
77 78 79 80 81 83 84 86 89 89 89 88 89 90 92 94 95 98 99 100 94 92 92 96 101 104 107 107 105 107 109 110 112 113 113 114 114 112 112 113 111 108 104 100
77 78 79 80 81 83 84 86 86 88 88 91 92 95 96 96 97 99 95 91 93 95 99 105 106 106 104 106 108 109 110 112 112 113 113 111 111 110 109 107 103 99 95 91
75 77 79 81 82 83 84 86 89 91 91 94 95 96 96 94 91 90 93 96 99 102 104 104 102 105 107 108 109 111 111 112 111 109 109 108 107 104 100 96 93 90 87 83
75 77 78 80 82 83 86 89 90 92 93 94 95 93 92 93 94 96 99 100 99 98 100 103 104 107 108 109 109 109 108 107 107 106 104 101 97 94 91 88 85 83 79 76
75 76 77 80 81 83 86 88 90 89 91 91 91 90 90 94 97 97 97 99 101 102 103 104 104 105 107 107 107 105 104 102 99 96 94 92 88 85 83 81 78 75 71 69
73 74 77 79 81 83 85 86 87 87 86 87 88 92 95 96 97 97 98 100 103 104 104 105 104 104 103 102 101 99 97 94 90 89 86 83 81 78 75 72 69 67 65 63

GFSNGP_250_spd_075.txt.gz
Wind_Speed
53 55 56 53 52 47 40 40 32 37 36 35 34 30 27 28 30 31 32 31 28 26 28 29 23 20 20 19 22 33 39 42 43 45 54 56 60 65 67 64 67 67 69 69
61 58 55 55 50 47 42 42 39 37 38 41 39 33 31 32 31 31 33 36 34 32 26 32 37 34 29 30 30 29 29 30 39 46 45 54 59 64 65 66 66 67 70 71
59 62 59 54 47 43 45 45 44 37 38 42 40 38 36 36 38 36 37 38 36 36 35 34 36 37 37 35 33 35 37 37 38 39 39 43 51 56 61 64 66 68 70 72
64 65 64 51 50 47 46 45 45 45 39 40 42 41 40 41 42 39 44 43 39 40 40 39 38 39 39 41 41 40 40 40 41 43 47 49 50 50 54 59 64 67 71 73
67 68 56 55 54 56 53 49 49 50 46 43 42 43 43 45 47 45 43 41 42 43 46 44 44 42 44 48 51 51 50 49 49 49 50 52 51 47 50 57 63 71 68 67
71 68 55 51 58 51 57 51 49 50 49 46 44 42 44 47 51 49 44 44 44 46 50 48 47 47 50 52 55 54 54 53 54 52 54 57 56 51 59 65 69 69 66 65
75 69 70 65 60 57 51 52 55 57 53 49 49 47 47 49 51 50 47 50 50 49 52 53 49 50 52 57 58 58 59 59 59 59 62 63 59 60 69 71 73 71 67 66
78 70 67 70 69 68 54 51 56 56 54 55 55 54 52 51 53 50 50 53 53 54 56 55 56 54 58 60 63 65 64 65 66 65 66 68 68 70 74 72 73 70 69 70
79 69 70 71 73 68 63 62 60 54 56 60 60 57 57 56 55 56 56 57 58 59 60 62 60 57 60 64 66 69 68 69 71 71 73 72 75 76 76 74 70 70 73 73
83 79 76 73 72 68 65 69 68 65 61 60 62 61 61 61 61 58 59 60 62 65 62 65 64 62 64 66 70 74 76 74 76 77 77 79 81 83 78 75 72 71 75 79
82 81 82 76 73 73 72 72 68 68 68 65 65 65 65 66 65 61 62 63 64 67 68 70 67 67 70 71 75 79 81 81 82 83 84 87 89 88 82 80 79 80 83 85
77 81 81 80 77 72 69 67 67 69 69 71 71 71 71 68 68 66 65 68 69 70 71 72 72 73 74 77 79 83 83 86 86 87 91 93 94 87 83 84 84 85 87 88
77 79 75 77 77 76 74 73 75 75 74 75 73 71 71 71 73 69 69 71 72 72 72 74 76 78 79 82 83 85 87 88 90 94 96 99 92 86 86 88 90 91 93 95
81 75 72 71 72 74 75 75 75 74 74 74 75 75 75 77 75 73 73 74 73 71 74 77 80 82 84 85 87 89 91 92 96 98 100 94 91 89 92 94 96 99 102 105
79 75 74 75 73 72 73 74 74 74 72 72 73 74 74 74 72 72 73 73 74 74 76 80 82 84 87 90 91 93 96 98 99 102 98 93 94 97 97 98 101 105 109 113
81 75 73 73 71 72 72 73 74 73 71 71 73 73 73 72 72 73 75 75 77 79 81 83 86 89 92 94 96 98 99 102 103 99 95 95 98 98 100 106 110 115 118 118
78 76 73 69 69 70 70 70 70 71 71 71 72 73 74 74 74 75 76 79 81 85 86 88 90 94 97 98 99 102 104 105 102 99 97 98 100 103 108 114 118 119 117 119
85 81 73 70 68 68 68 68 69 71 71 71 71 72 74 74 76 79 81 83 87 88 89 93 94 99 100 101 104 105 105 101 97 96 99 103 106 111 116 119 118 118 120 121
83 79 72 69 67 67 68 69 70 70 72 72 72 74 76 78 80 83 86 88 90 91 95 98 101 102 103 104 106 106 101 100 101 105 109 113 116 118 117 117 119 119 118 119
79 78 76 74 73 72 71 70 71 72 73 74 75 77 79 82 84 87 90 91 93 97 102 104 102 103 105 105 104 101 102 104 107 111 112 113 113 116 118 117 117 117 116 116
79 80 80 79 77 77 76 77 77 78 78 79 80 82 84 86 88 90 92 96 102 103 102 102 105 105 105 105 105 106 108 110 112 112 113 115 115 115 116 115 116 116 113 110
75 79 82 82 80 80 81 82 83 84 84 85 87 89 91 93 95 96 97 98 100 100 103 104 105 106 106 106 107 109 111 111 112 114 114 115 116 114 115 114 112 109 106 102
69 74 77 80 82 83 84 85 85 86 88 88 88 90 91 91 93 96 96 97 100 102 103 105 107 107 107 108 110 110 111 113 113 114 114 113 113 113 110 107 103 100 98 95
65 68 71 73 76 78 80 81 82 84 86 87 86 88 90 92 93 95 97 98 100 101 104 105 106 108 109 109 109 112 111 112 113 113 112 110 107 105 102 99 96 93 89 86
64 66 68 71 72 74 75 78 80 82 83 84 86 88 90 91 93 96 97 99 101 102 103 106 107 108 109 109 109 111 111 111 110 108 105 102 100 98 95 91 87 85 82 78
63 65 67 68 70 72 75 77 79 81 83 85 87 89 91 92 95 98 99 100 101 102 103 103 105 106 107 109 110 110 109 106 103 100 98 95 92 89 86 83 80 77 74 72
64 66 68 69 71 73 75 78 81 83 85 87 88 90 92 94 95 97 99 100 101 101 102 103 104 106 107 107 106 103 100 97 95 92 89 87 84 82 79 76 73 70 68 65

GFSNGP_250_spd_078.txt.gz
Wind_Speed
79 77 82 76 65 56 54 48 44 47 43 37 32 27 29 28 28 23 24 22 22 27 27 24 20 16 16 17 18 20 23 27 30 32 41 43 44 51 57 60 64 69 77 86
73 71 73 63 55 61 55 49 44 49 45 44 37 34 28 30 27 27 26 24 23 25 30 32 32 27 22 18 21 22 24 25 29 33 38 44 47 54 63 68 71 77 81 87
60 64 63 56 55 59 55 47 46 49 47 47 42 39 34 28 31 31 32 31 27 30 29 32 36 37 34 31 29 29 27 26 29 32 33 36 38 42 44 48 53 58 60 61
59 63 64 48 60 57 54 51 48 45 47 47 42 40 39 36 30 36 36 34 33 31 34 32 33 38 39 39 38 37 40 39 39 40 42 42 43 45 47 50 53 56 59 60
59 63 55 63 60 58 58 55 48 46 47 46 46 43 41 42 40 38 39 38 38 35 36 35 35 39 41 39 41 42 43 47 45 47 49 49 51 53 55 57 58 61 63 65
57 64 60 63 61 61 62 55 51 51 49 50 51 45 42 43 43 41 43 42 42 42 43 42 44 45 46 47 48 48 51 49 51 53 56 58 58 61 62 64 66 68 69 71
59 67 67 68 65 66 66 52 56 56 58 62 53 50 47 43 44 46 50 48 48 49 48 47 50 52 51 53 54 53 56 54 57 58 60 62 64 66 67 70 72 73 76 79
69 72 73 71 65 65 62 65 64 64 63 58 53 51 49 49 50 52 55 55 54 54 54 54 55 56 57 58 59 59 61 60 61 63 65 67 70 73 75 76 77 78 82 85
74 73 78 74 72 66 63 60 65 63 62 58 52 44 49 51 53 55 56 56 57 57 57 58 61 62 61 64 65 65 64 65 67 67 70 75 76 78 81 82 84 86 88 91
72 76 81 74 72 69 67 67 65 62 63 62 61 60 58 57 60 59 57 57 59 60 63 64 64 66 66 68 69 69 67 69 72 72 75 78 81 84 86 88 89 91 92 95
71 74 81 77 74 71 66 61 63 66 66 67 68 71 69 66 68 62 63 65 68 68 68 69 67 68 69 70 72 73 72 74 76 78 80 82 85 88 90 92 94 97 98 97
72 78 81 82 77 77 71 70 68 67 69 69 68 67 66 65 66 66 68 71 71 72 73 70 70 74 73 72 73 75 76 78 80 82 85 88 90 94 95 96 100 101 102 98
73 76 80 82 82 78 73 69 68 69 68 66 66 69 68 68 68 70 71 72 76 77 76 74 74 74 73 73 76 78 81 83 85 88 91 94 96 100 100 102 103 105 102 97
76 75 75 80 84 83 77 73 74 75 75 73 73 73 73 75 76 76 78 79 79 77 75 75 75 74 74 76 79 82 84 86 91 94 94 99 102 106 104 106 108 104 102 102
74 73 75 78 84 86 83 78 74 74 75 75 75 76 76 79 80 78 77 78 78 79 78 77 77 77 78 79 82 85 88 92 95 97 100 103 109 108 109 109 109 107 106 106
76 75 72 74 76 79 84 77 73 71 72 74 75 76 77 78 78 77 76 76 77 78 78 79 80 80 81 84 88 90 93 96 98 101 104 111 111 111 111 111 111 109 109 111
74 75 73 74 75 75 76 76 74 72 72 73 74 74 74 74 74 75 77 78 78 79 80 81 81 84 87 89 91 95 97 100 102 106 112 111 111 112 113 112 112 113 115 116
72 76 75 77 78 74 70 71 74 75 74 74 74 74 74 75 75 76 78 79 80 81 82 85 87 89 91 94 95 99 102 104 109 111 109 110 113 114 115 115 113 115 116 117
74 77 79 80 78 74 72 70 69 68 69 69 69 71 72 75 78 79 80 81 82 84 87 88 91 93 97 98 101 105 107 107 107 108 110 112 114 116 115 114 116 116 117 118
74 76 78 79 77 74 73 74 73 71 72 71 71 72 73 75 77 80 81 83 85 88 91 94 97 99 102 105 106 105 107 106 108 110 112 114 115 113 114 115 116 117 118 118
72 75 79 79 79 78 77 77 76 76 77 77 76 77 78 79 81 84 87 89 92 95 97 100 102 104 105 106 105 105 106 108 110 111 113 113 113 114 115 115 115 115 115 114
62 67 75 79 82 83 83 83 83 82 81 82 83 83 84 86 88 91 93 95 97 100 102 103 103 104 103 102 104 106 108 109 111 111 111 111 112 113 113 113 112 111 108 105
56 59 64 71 76 78 81 83 84 84 83 84 86 88 90 92 93 96 98 99 101 101 101 101 100 100 101 104 105 107 109 109 109 109 110 111 111 110 110 110 108 104 100 96
49 50 53 56 62 68 73 76 78 81 83 85 88 90 92 94 96 98 97 96 97 97 96 97 99 101 102 105 106 106 107 108 108 109 110 108 108 107 105 102 98 94 91 88
47 50 52 55 58 61 64 67 71 75 79 81 84 87 89 89 89 89 90 91 93 94 97 99 101 103 104 105 106 107 106 107 107 107 106 105 103 101 97 93 90 87 84 81
46 50 53 55 57 61 64 67 70 72 75 77 78 80 82 83 86 88 89 92 94 97 99 100 102 103 104 104 104 105 106 105 105 103 101 99 96 92 89 85 83 80 77 74
48 51 54 56 59 61 64 66 68 70 73 75 78 80 82 84 87 89 91 92 95 97 98 99 100 100 101 102 103 104 103 102 101 98 94 90 87 84 81 79 76 74 70 68

GFSNGP_250_spd_084.txt.gz
Wind_Speed
84 80 84 77 75 74 67 60 57 53 53 51 52 46 45 49 45 48 42 40 35 33 30 27 21 22 21 19 20 19 19 18 19 20 20 22 24 27 31 34 35 36 38 40
90 92 86 89 87 81 70 69 67 64 59 58 59 59 49 48 51 46 48 41 42 39 34 34 27 25 27 26 25 25 24 24 25 26 27 27 28 29 31 35 38 41 44 45
88 103 99 101 91 86 84 79 78 76 70 62 61 60 53 52 46 46 50 45 40 44 44 39 35 30 29 32 32 29 28 29 31 33 34 36 36 37 37 39 40 42 46 49
69 82 89 90 101 100 94 88 84 81 78 73 69 70 62 56 51 50 55 49 46 47 46 42 38 39 38 36 38 37 35 35 35 38 39 39 42 43 45 47 48 48 49 52
67 74 77 74 84 102 106 94 93 90 88 84 78 73 60 56 54 53 64 47 52 52 48 48 49 49 49 47 47 44 41 40 40 40 41 42 43 46 49 50 53 55 56 59
69 68 67 65 74 83 92 88 89 88 86 87 86 74 62 60 62 60 62 56 51 57 55 54 52 52 51 51 50 47 44 45 44 44 44 48 52 53 55 57 59 59 62 65
66 60 61 59 63 67 74 68 73 73 70 74 72 66 64 65 66 64 63 59 50 57 55 53 53 51 50 51 50 50 49 50 49 48 51 55 60 59 62 64 65 66 68 70
62 61 62 58 59 64 65 67 64 65 59 63 65 64 63 67 68 66 65 62 55 53 56 54 56 56 60 59 58 56 56 54 53 56 60 64 68 65 68 72 71 72 73 75
64 61 62 59 60 65 59 63 59 59 61 63 64 63 65 65 69 68 68 66 65 59 63 59 61 59 60 63 63 60 60 59 60 63 66 70 73 72 74 76 76 78 78 80
61 64 63 61 58 53 53 51 54 59 62 63 63 63 65 69 73 70 70 71 69 67 66 67 67 65 67 66 63 63 65 65 68 72 72 74 77 79 82 82 81 83 84 86
60 64 62 61 56 49 50 50 54 59 66 64 63 65 68 70 74 71 71 72 70 69 68 69 71 69 69 69 70 70 70 71 74 76 79 79 82 84 86 89 87 87 89 90
56 62 63 58 56 46 46 49 54 61 65 59 62 66 69 68 70 73 72 69 70 73 73 72 73 71 69 72 75 74 75 76 80 82 82 82 86 90 92 91 91 91 93 92
59 62 63 59 47 41 45 47 53 62 64 62 67 71 70 66 67 72 74 71 71 72 71 69 70 69 66 69 72 74 77 81 83 85 86 89 93 95 95 94 93 94 94 96
60 63 64 61 44 46 47 54 56 59 63 63 68 67 69 64 64 65 69 73 73 73 69 69 70 71 72 75 75 79 81 82 84 87 91 94 96 98 98 97 96 96 98 101
56 61 62 54 44 47 50 55 59 61 63 64 70 71 69 68 64 65 66 68 69 68 71 71 72 74 76 77 80 81 83 86 90 93 95 96 100 100 98 98 99 100 104 107
52 62 62 50 48 50 54 54 63 65 67 69 70 74 74 72 71 72 71 70 68 70 74 77 78 81 82 82 84 87 89 93 96 98 99 102 102 100 101 101 103 107 111 115
48 56 57 51 50 55 60 59 64 66 67 66 70 73 74 77 78 78 76 76 77 78 80 82 83 84 85 88 92 95 96 99 100 99 103 104 102 102 106 109 112 115 119 123
42 47 50 52 54 60 65 66 64 70 70 70 70 76 78 77 78 80 82 81 84 86 86 88 89 90 94 96 98 100 100 101 101 104 105 105 105 109 112 116 118 120 120 120
42 47 52 55 54 58 69 73 73 76 76 75 71 72 78 82 82 82 83 85 87 89 89 91 93 96 99 100 100 100 100 102 104 108 107 110 111 114 118 119 119 119 119 120
45 46 46 53 59 59 63 72 75 77 77 79 73 71 73 75 80 84 84 86 88 89 90 92 95 97 99 100 103 104 105 107 108 109 112 113 116 119 118 118 118 117 119 120
41 42 42 45 54 58 62 71 76 81 80 82 79 76 77 80 79 82 85 87 89 91 94 96 97 98 99 101 103 105 107 107 111 113 115 117 117 116 117 116 117 118 118 117
35 37 39 46 50 54 58 64 71 77 79 80 79 79 80 82 83 83 84 86 87 89 91 94 96 98 100 102 103 105 109 111 113 115 116 115 114 113 114 116 116 115 115 114
40 42 46 50 54 59 61 63 66 70 74 78 81 84 82 84 82 84 87 87 89 90 92 94 97 99 101 103 106 109 110 113 113 112 110 110 111 113 114 114 113 113 111 108
42 43 44 51 56 63 62 62 64 68 71 76 79 83 84 85 87 88 90 91 92 94 95 98 100 102 104 106 108 109 110 110 107 106 108 110 111 110 110 110 109 107 102 98
40 44 47 48 54 56 54 56 60 64 67 70 74 80 84 85 87 88 90 92 93 95 97 100 102 103 104 105 106 106 103 103 104 106 107 105 106 106 107 106 101 96 92 89
41 41 41 41 44 49 51 52 53 57 61 64 69 72 76 80 84 87 89 92 94 97 97 97 99 100 99 98 97 98 100 101 101 101 102 103 104 103 99 95 92 88 86 84
37 40 44 46 49 51 52 55 57 59 60 63 65 67 71 73 77 80 83 86 87 87 88 89 89 90 91 93 94 94 95 96 97 99 101 101 97 94 91 88 86 84 81 78

GFSNGP_250_spd_087.txt.gz
Wind_Speed
80 75 74 76 72 72 68 62 54 51 50 48 57 60 54 47 43 40 43 37 36 31 33 35 34 31 26 23 23 20 20 21 22 21 21 20 20 21 24 26 28 29 29 31
87 89 89 84 79 73 68 66 58 56 52 52 54 63 60 55 51 46 48 43 40 37 39 43 39 39 34 31 27 27 26 26 26 28 28 28 28 30 31 32 34 36 37 38
91 92 95 93 87 87 83 76 68 61 58 63 59 62 66 64 59 52 50 51 48 40 43 46 46 43 43 38 37 35 32 33 33 33 34 33 32 33 36 37 38 39 41 43
83 89 90 82 97 91 93 87 80 71 68 67 68 68 67 66 65 57 52 54 55 51 48 51 48 47 49 47 44 42 42 41 37 36 40 41 39 39 39 40 41 43 46 47
69 79 75 74 84 91 95 89 90 83 79 79 76 78 68 73 72 70 62 59 53 56 52 56 53 47 50 50 47 44 44 47 45 45 47 45 45 45 45 47 47 51 54 56
58 65 66 72 75 77 81 87 94 84 86 83 83 81 69 85 80 75 70 71 67 58 58 61 58 53 48 51 50 51 54 53 52 52 52 49 49 49 49 51 54 58 60 63
61 57 56 65 70 72 72 72 81 87 86 88 88 87 87 88 84 79 77 78 77 71 64 63 66 57 52 52 56 58 58 57 58 57 56 56 56 57 57 58 58 62 66 69
58 52 57 66 64 64 65 70 73 76 75 73 79 87 91 91 92 88 80 77 78 76 71 68 69 63 58 59 52 55 57 61 63 63 62 61 63 64 61 63 67 70 72 76
51 51 56 58 58 57 59 65 65 69 69 67 68 72 77 80 87 89 91 82 76 74 75 74 70 71 64 61 62 59 60 68 68 66 68 67 66 67 66 70 73 76 79 82
44 52 53 55 56 56 60 59 64 57 62 60 60 63 66 69 71 71 73 73 77 75 77 77 70 74 72 67 67 65 67 71 71 69 70 72 72 75 74 76 78 82 86 87
43 48 48 51 53 56 59 60 60 57 52 53 54 59 61 63 66 67 68 73 72 73 74 75 74 75 74 73 72 69 71 75 77 76 77 76 76 79 80 82 83 87 89 89
44 44 47 50 53 53 54 57 55 45 44 46 49 55 55 60 62 67 58 50 64 70 68 69 70 75 75 76 76 76 78 78 78 78 79 78 79 81 83 85 87 91 91 92
43 42 46 49 51 54 52 50 44 38 40 41 42 52 52 61 65 64 67 69 69 64 64 66 70 74 73 75 79 82 81 82 83 83 80 82 83 83 86 90 92 94 96 101
42 39 45 49 50 51 51 49 44 32 41 33 40 47 54 60 63 64 64 67 66 62 63 67 71 75 79 80 82 79 82 84 87 87 89 85 86 89 92 92 96 101 105 108
41 39 43 49 50 51 46 47 43 37 47 44 46 48 50 58 67 62 66 66 60 58 59 63 67 69 76 81 78 77 80 84 85 87 88 90 91 92 95 99 103 106 110 114
37 40 40 43 46 47 47 44 44 42 42 49 54 64 64 63 61 62 67 67 65 59 61 64 68 67 71 77 80 84 87 88 87 89 91 94 96 98 101 107 109 112 116 119
31 38 40 44 44 48 48 42 44 46 48 46 55 60 66 67 65 66 66 67 67 69 71 72 72 72 75 77 80 83 86 90 92 93 97 99 102 106 109 112 115 118 119 115
28 32 39 43 48 48 49 45 44 44 47 50 56 60 65 70 69 68 66 68 75 78 77 79 80 81 83 86 87 90 93 95 96 98 101 105 108 110 112 115 116 114 116 120
24 30 35 39 47 49 53 48 46 50 45 51 54 58 64 66 67 67 68 69 74 81 84 84 86 88 91 92 94 95 97 99 102 104 107 109 111 114 114 115 115 118 119 122
27 29 33 36 39 43 46 49 48 47 51 55 58 56 61 66 70 73 75 76 75 77 82 86 87 89 91 95 97 99 101 103 104 106 110 112 112 112 112 115 118 119 122 125
31 34 34 35 38 41 46 52 55 52 53 55 62 62 65 68 71 75 76 78 82 84 83 87 91 93 95 97 99 101 103 105 106 108 109 109 111 113 115 117 119 122 124 122
31 33 34 35 39 43 45 46 50 54 59 60 62 67 71 77 78 80 83 85 87 87 89 86 89 93 94 95 96 98 99 102 104 106 108 111 113 115 117 119 120 118 118 120
33 33 35 36 41 41 43 46 49 52 55 59 63 69 73 79 82 85 86 84 86 88 88 90 88 90 92 94 96 98 100 103 105 108 110 113 115 116 117 115 115 118 115 115
34 36 36 37 39 39 40 43 47 49 53 59 64 65 68 73 77 81 83 85 84 87 87 90 93 94 96 96 98 102 105 106 108 110 110 111 112 112 112 114 113 112 113 111
36 37 36 39 41 40 41 43 46 50 54 58 61 64 66 68 71 74 78 81 83 85 86 89 93 95 97 98 101 103 104 104 105 107 109 108 109 110 109 109 109 109 106 103
35 38 38 38 40 41 42 45 49 52 55 57 58 61 64 66 67 69 71 74 77 80 82 85 88 92 95 97 98 100 103 104 105 103 103 104 104 104 105 105 103 101 96 92
34 38 42 41 41 41 43 46 48 50 51 51 51 52 56 61 64 67 70 73 74 76 79 81 84 87 90 92 93 94 95 96 97 98 99 99 101 101 101 98 94 91 87 84

GFSNGP_250_spd_090.txt.gz
Wind_Speed
67 62 65 71 71 70 70 69 67 65 61 59 58 58 58 57 52 48 50 51 45 38 35 34 27 27 32 31 29 27 24 22 20 20 20 21 21 21 22 24 25 26 27 28
71 72 75 68 64 68 74 76 77 76 72 68 65 64 57 60 54 55 56 54 52 47 42 43 38 29 29 35 36 37 33 31 30 29 28 28 28 28 30 31 32 32 33 34
80 76 74 71 77 74 69 65 69 66 62 63 63 60 62 60 57 54 58 61 60 57 49 48 46 42 32 29 36 39 39 38 37 41 39 37 38 36 35 37 38 39 39 40
81 85 81 81 83 82 80 79 76 73 70 69 68 66 63 64 62 57 57 61 63 62 61 55 52 49 45 37 38 36 43 46 46 46 46 46 48 45 42 44 46 48 47 47
77 83 85 87 87 86 89 92 87 84 78 76 71 66 59 66 67 66 62 59 59 64 65 61 54 56 52 50 47 46 46 49 51 52 52 53 54 52 53 54 54 54 54 52
72 75 76 81 88 89 91 91 94 95 92 86 76 72 67 69 69 67 68 64 62 64 65 63 62 61 57 60 55 52 54 58 52 53 53 55 57 58 59 59 59 58 58 59
71 73 75 81 82 84 85 88 91 94 91 87 86 87 83 79 75 73 77 74 71 72 72 71 69 66 65 63 63 63 59 62 61 59 56 57 59 63 65 65 64 63 63 66
63 62 65 73 74 76 77 73 78 76 76 80 83 82 85 89 87 85 84 82 79 77 75 75 74 73 70 70 68 66 67 67 65 62 63 63 64 67 70 70 68 67 70 71
57 58 60 64 63 65 66 66 68 70 67 68 71 73 76 82 86 90 90 90 89 86 85 82 79 77 77 74 75 72 73 73 73 69 68 69 72 71 71 71 71 74 78 79
55 59 58 61 58 57 58 61 61 61 63 65 64 66 66 70 77 87 90 90 91 90 88 86 87 87 86 83 79 80 79 82 79 77 76 76 76 77 76 76 75 77 79 83
52 54 51 57 52 51 54 55 56 57 59 62 63 62 62 61 65 70 77 84 91 93 94 94 91 86 81 78 80 81 83 82 82 82 84 83 83 81 81 82 83 83 86 88
50 48 49 45 46 47 47 49 52 53 56 59 59 57 52 57 61 64 66 69 71 72 74 75 74 73 72 73 76 77 80 80 81 79 84 87 86 85 86 87 89 90 94 95
46 46 47 42 43 43 45 46 48 51 54 52 48 51 49 50 51 52 55 56 59 64 66 64 62 60 62 67 63 69 71 68 70 76 80 84 87 90 93 93 94 96 99 99
45 43 45 39 40 41 43 45 47 48 50 49 49 46 43 41 43 36 41 30 37 29 36 53 60 60 58 62 69 67 68 71 72 72 76 78 84 88 91 95 96 96 99 101
42 41 43 38 35 38 40 42 45 47 47 45 43 38 41 41 35 37 31 46 58 59 59 64 62 69 67 75 74 72 70 67 66 68 68 70 75 80 85 91 95 97 100 103
38 36 39 38 35 37 39 41 44 45 43 42 37 40 46 47 56 60 55 60 65 70 75 78 72 69 76 78 77 71 72 75 73 74 75 79 82 84 86 92 96 100 104 107
34 34 36 39 34 34 35 38 42 44 44 41 39 51 53 51 49 59 67 65 66 69 67 69 71 73 74 73 74 75 76 79 79 81 85 88 91 94 97 101 105 107 110 113
30 31 35 39 40 34 35 37 41 44 45 48 47 56 56 51 58 63 59 64 71 62 61 68 70 76 77 80 81 82 84 86 88 90 92 94 96 99 102 105 108 111 114 117
26 28 35 38 40 39 33 34 37 40 42 40 50 52 59 57 63 65 68 69 73 71 73 71 75 80 81 82 82 86 90 92 95 96 98 99 103 107 109 110 112 113 113 115
28 29 31 35 37 40 36 31 35 38 40 43 47 53 58 59 61 69 80 81 81 85 84 83 84 84 86 87 88 89 90 95 100 103 104 106 108 109 110 110 111 115 115 112
30 34 33 35 38 39 39 36 37 38 41 46 46 49 52 67 66 68 66 73 81 84 86 86 86 88 89 88 91 93 95 97 100 102 104 105 105 105 105 107 109 110 111 112
31 33 34 36 41 42 41 39 38 38 41 48 51 53 55 59 66 65 70 70 71 73 78 81 86 90 91 92 94 95 96 98 101 100 100 101 103 106 109 110 111 111 112 114
37 37 36 37 37 39 41 42 41 40 41 44 49 60 58 65 69 59 65 73 78 79 79 82 84 87 90 92 93 93 94 92 93 96 99 102 105 107 109 111 111 111 110 112
34 34 34 35 36 38 40 40 40 42 42 43 46 51 54 58 66 72 72 74 77 81 82 84 86 89 90 92 94 94 96 97 98 97 99 100 101 103 104 106 106 109 109 106
33 34 35 36 38 40 42 41 40 42 43 44 46 49 53 57 61 65 68 71 74 75 77 78 79 80 81 82 83 87 89 91 91 92 94 95 97 98 97 97 100 102 103 103
34 35 35 37 40 41 40 41 42 39 39 41 45 47 49 54 56 58 60 62 65 67 69 71 72 74 76 79 82 83 84 84 84 85 86 86 88 91 93 95 96 98 99 98
35 37 37 39 40 41 40 40 42 44 42 43 44 46 49 51 51 51 51 51 53 56 59 62 67 70 72 74 75 76 77 78 78 78 80 83 85 88 89 92 94 93 93 91

GFSNGP_250_spd_093.txt.gz
Wind_Speed
66 62 60 64 65 65 60 61 61 61 58 62 64 66 63 60 56 51 50 49 45 44 40 42 37 33 26 26 28 25 25 30 28 25 22 21 22 21 22 23 24 25 28 30
67 66 68 62 64 62 64 65 68 64 67 68 66 66 63 60 56 53 52 52 49 47 46 47 44 40 37 43 34 30 31 26 28 31 33 32 31 30 30 31 33 34 36 37
65 68 64 59 70 62 63 65 69 73 73 72 67 66 68 67 63 60 58 55 54 52 48 53 49 50 50 47 39 41 35 31 31 30 35 37 38 41 41 41 40 43 45 46
67 69 69 70 70 68 70 72 68 68 69 71 74 74 71 69 70 71 65 60 60 59 56 52 52 49 53 52 48 47 48 45 35 36 40 40 45 48 48 48 50 54 56 56
72 71 71 75 75 73 71 71 71 77 76 75 76 78 77 78 81 75 76 66 66 61 57 56 53 55 56 54 55 59 56 51 50 47 43 45 50 52 55 55 56 56 60 61
72 74 80 80 78 78 77 81 82 78 78 80 82 84 85 82 75 67 67 68 68 65 62 58 58 57 59 61 62 59 60 57 55 56 56 55 54 53 55 60 59 58 59 63
74 73 74 78 82 84 85 87 86 85 86 84 80 76 73 73 71 64 71 75 74 72 68 63 64 64 62 62 65 64 63 63 63 60 62 65 61 59 62 63 67 70 68 69
72 70 71 74 77 79 82 86 90 89 88 86 84 85 84 83 78 78 77 79 79 75 68 67 66 66 67 68 66 66 67 69 69 69 67 67 70 65 71 72 73 74 74 74
67 67 68 73 77 80 82 83 84 82 81 84 86 85 84 89 93 91 87 85 85 83 77 71 71 71 72 72 73 73 71 73 73 74 73 74 73 73 75 73 79 82 81 82
61 64 67 69 73 76 77 78 75 74 74 74 74 76 79 81 84 88 91 94 89 87 87 86 84 82 80 79 78 79 79 81 82 80 81 81 80 79 81 81 82 84 85 88
60 62 58 61 61 59 61 61 59 60 61 62 63 65 69 72 73 72 74 77 84 91 97 98 96 92 89 87 87 87 87 88 87 87 88 86 84 82 81 79 81 80 82 83
60 53 54 54 55 56 54 52 51 51 54 54 54 56 58 63 57 56 61 65 66 68 74 81 87 94 95 93 92 91 89 88 86 85 83 80 76 73 72 72 78 83 80 79
52 53 54 53 52 53 49 46 44 46 46 46 49 53 54 56 53 51 58 57 58 58 59 62 66 70 75 80 83 83 80 78 75 72 71 70 69 63 68 72 78 81 81 80
53 53 50 48 49 47 44 44 43 41 41 45 49 49 50 49 49 50 50 51 51 44 44 46 47 51 52 55 59 61 62 57 56 61 68 72 66 68 74 76 79 83 82 84
50 50 47 45 47 44 41 39 39 39 42 45 46 48 45 45 46 44 44 43 38 36 29 27 37 31 31 45 49 46 51 65 69 71 74 74 78 81 81 83 85 88 88 91
49 47 47 41 40 39 36 38 36 37 40 44 46 47 45 46 44 42 47 41 34 37 36 37 43 45 52 55 61 64 65 63 68 72 70 76 84 89 88 88 90 98 99 101
45 42 40 38 36 37 37 35 36 35 38 42 45 48 49 46 44 48 46 49 46 46 45 52 54 55 62 64 63 72 74 74 80 80 81 84 87 90 91 97 101 104 106 106
40 38 37 37 36 37 36 35 36 37 37 39 43 46 50 47 48 49 56 57 56 60 62 66 66 65 69 68 68 70 75 83 90 89 88 93 98 100 101 103 104 106 108 112
37 36 34 36 38 38 39 36 36 37 39 40 43 44 47 45 54 55 63 64 64 69 71 72 75 76 80 80 84 86 86 89 94 96 96 97 99 101 104 106 108 109 111 114
32 34 36 37 39 41 42 41 36 37 40 40 42 45 48 48 59 62 69 75 74 76 78 81 85 87 88 92 91 93 95 99 97 93 92 97 100 101 105 108 110 112 114 114
36 33 31 34 37 40 42 42 40 37 41 42 44 48 50 52 62 65 76 86 83 86 87 88 91 91 90 92 89 91 96 98 96 100 103 102 103 107 110 112 113 115 116 113
35 35 34 34 36 41 40 41 42 43 41 42 44 43 48 58 64 61 75 81 86 88 87 87 86 89 92 91 94 95 98 102 104 105 108 108 110 113 114 111 110 111 112 109
39 37 33 33 38 41 42 44 46 45 40 37 39 45 46 52 56 59 66 81 81 86 82 81 85 95 98 99 101 102 107 107 106 111 115 115 109 107 104 103 103 103 105 105
43 41 39 36 39 40 39 38 40 41 42 41 41 42 43 46 47 52 56 64 68 77 79 91 94 89 93 97 99 98 101 102 104 108 105 103 102 104 104 99 98 96 95 94
36 34 34 35 37 37 38 39 39 40 41 41 40 39 41 44 47 51 55 56 57 62 68 70 73 80 89 94 96 96 97 97 95 95 94 91 91 89 89 90 90 89 89 90
31 31 32 32 34 35 37 40 41 42 40 40 40 42 43 44 47 50 54 56 59 62 65 67 68 68 69 71 73 74 76 76 76 77 77 79 81 83 84 83 84 85 87 88
33 34 34 35 36 36 36 37 38 40 41 42 43 43 44 45 47 50 52 54 56 57 59 59 59 60 60 61 62 63 67 69 70 71 72 74 77 78 80 81 83 85 85 85

GFSNGP_250_spd_096.txt.gz
Wind_Speed
65 61 61 64 59 56 57 59 58 58 63 65 65 54 53 55 54 56 56 56 56 50 49 44 43 40 41 39 33 32 26 24 22 19 23 23 23 21 21 21 22 25 26 28
66 64 60 61 59 59 58 62 62 57 62 67 67 62 58 61 62 59 59 59 60 56 54 52 43 40 39 41 41 38 33 30 35 31 20 21 21 24 29 32 33 33 33 33
67 69 61 56 57 64 60 63 61 60 58 61 65 65 65 65 62 64 66 66 61 58 55 54 57 50 44 43 41 40 40 38 37 37 37 33 33 33 32 31 32 37 41 42
67 65 59 64 63 62 65 61 67 67 65 66 62 59 64 65 71 67 68 69 66 66 59 52 56 57 54 49 51 49 45 47 47 42 43 45 43 42 41 41 41 41 44 48
66 65 63 65 67 64 65 68 66 68 70 68 66 66 66 71 72 74 69 57 59 61 60 58 62 63 63 57 54 57 57 53 50 52 52 53 51 48 50 52 51 53 51 51
68 66 66 68 69 69 74 74 69 68 65 68 73 72 74 72 74 76 72 65 68 71 70 69 68 62 62 59 59 61 61 59 59 58 56 58 57 58 57 54 56 59 60 61
73 71 70 68 64 68 73 74 77 75 72 72 75 75 76 81 83 84 78 75 77 76 72 72 68 67 67 63 64 64 66 64 63 62 61 61 61 62 62 62 64 64 66 66
72 70 71 71 68 69 68 74 76 79 80 82 81 79 79 81 81 81 83 83 83 83 81 78 72 70 66 65 67 64 65 67 67 66 65 67 67 66 65 67 71 73 74 73
71 72 71 71 70 73 73 75 77 80 82 82 83 84 85 89 86 84 86 86 86 84 81 81 75 68 74 73 70 70 69 68 66 67 67 68 69 70 71 72 73 75 78 80
69 70 69 69 69 71 77 78 79 82 83 81 82 82 85 86 88 93 96 96 91 89 84 79 79 78 76 75 74 74 72 72 73 73 73 73 74 75 77 79 82 83 85 91
65 68 68 67 68 67 68 69 73 77 77 77 78 76 75 74 76 79 84 87 90 91 90 88 87 86 84 84 83 81 81 81 79 78 78 79 83 85 86 87 88 87 84 82
65 65 63 66 66 68 67 67 69 67 67 68 71 68 69 70 70 70 72 72 74 77 82 88 93 94 95 93 92 90 91 90 90 92 92 90 90 92 92 92 89 80 79 69
59 57 56 59 58 58 60 58 58 56 54 53 54 53 56 55 58 62 60 60 61 59 60 66 70 75 78 82 87 90 94 99 99 101 101 99 94 94 92 86 80 72 66 64
54 51 56 53 53 51 51 53 50 47 47 47 50 51 49 50 52 54 58 54 52 54 56 57 57 57 59 62 65 68 70 71 71 70 71 72 72 72 62 59 64 66 69 73
47 54 53 50 50 49 50 47 48 47 45 44 44 45 43 43 47 49 48 51 49 48 50 50 50 47 46 43 46 47 48 53 55 49 52 55 54 57 57 64 69 74 80 85
53 52 50 49 49 48 47 45 45 43 44 43 44 45 43 41 44 44 44 46 46 47 47 44 47 44 44 45 43 51 54 49 48 51 55 62 57 58 66 73 78 80 86 90
49 48 49 46 45 45 45 43 43 42 45 41 42 42 42 43 43 43 43 44 46 49 51 50 48 48 49 48 49 48 55 57 52 63 57 63 64 74 79 83 86 88 90 94
47 45 44 44 43 42 43 42 44 43 41 42 40 41 43 46 47 45 48 46 49 53 52 49 53 50 51 56 58 56 64 73 68 68 70 77 80 84 83 84 87 90 95 98
44 44 42 42 42 42 43 43 42 41 41 40 40 41 43 44 48 48 48 49 57 59 56 57 58 61 62 67 63 66 70 75 77 81 85 87 89 88 88 87 93 98 103 110
39 40 39 39 42 42 42 42 41 39 38 40 41 43 43 46 49 50 52 54 63 63 62 66 67 67 67 69 70 72 78 81 83 86 89 91 95 94 95 101 104 104 106 109
40 41 41 41 41 42 43 42 43 42 41 38 41 42 43 45 46 51 54 58 64 65 76 75 74 76 79 81 81 83 86 90 90 90 92 95 98 102 105 108 111 112 117 122
39 38 37 37 37 40 41 40 41 41 42 42 41 42 45 45 47 49 54 58 65 66 73 83 84 84 86 88 90 90 91 92 97 98 99 102 105 107 111 117 120 123 125 121
37 36 34 33 34 34 34 34 36 39 43 44 44 44 46 46 45 45 49 54 62 63 68 82 84 89 91 94 95 98 100 102 103 106 109 109 113 115 116 120 121 122 123 122
35 36 36 36 36 36 34 34 36 38 40 44 44 42 42 43 43 43 47 52 53 60 62 72 82 87 93 96 99 102 105 106 107 109 111 112 111 112 116 120 124 126 126 126
38 39 40 40 41 39 36 38 38 39 39 40 40 41 40 41 44 47 49 50 53 57 59 60 63 74 81 92 103 109 112 110 111 111 111 111 112 114 116 115 113 111 114 115
44 46 45 46 45 41 39 36 35 35 37 39 41 42 42 42 43 44 46 48 50 52 55 58 60 60 63 68 82 97 108 111 111 110 106 102 99 93 89 88 88 88 90 91
41 39 39 37 36 34 33 32 33 34 36 37 38 41 43 45 46 46 47 49 51 54 56 58 60 62 63 64 66 69 72 74 74 74 76 78 79 80 82 82 83 84 83 83

GFSNGP_250_spd_099.txt.gz
Wind_Speed
47 50 44 42 45 49 52 53 52 56 57 58 54 56 61 60 60 65 53 52 49 56 47 44 46 45 42 39 35 36 36 32 32 30 24 21 18 21 19 22 21 20 21 23
49 52 44 47 49 49 53 53 52 52 51 57 59 62 69 64 64 61 56 54 48 48 46 44 48 48 45 43 42 42 40 37 36 35 30 26 28 31 30 25 23 26 27 31
53 53 49 48 54 58 58 53 52 51 56 59 62 68 70 64 62 55 53 51 51 46 47 47 47 50 52 48 47 43 43 41 36 39 43 42 36 34 38 36 34 36 38 38
58 56 52 59 57 57 57 58 55 48 55 59 62 64 63 62 59 57 56 58 55 57 52 54 46 48 51 51 55 55 53 47 44 43 38 46 46 42 43 42 45 45 44 47
58 53 57 58 58 57 56 57 58 55 59 61 61 65 64 64 65 65 64 67 64 60 59 57 56 59 56 56 53 56 56 55 56 54 53 53 52 49 50 51 50 51 53 54
57 54 58 56 55 58 60 58 56 60 59 63 64 62 66 71 73 70 68 68 67 65 66 64 60 62 63 63 64 61 56 59 57 58 59 61 62 62 61 58 56 57 58 59
56 57 60 56 59 59 59 58 59 57 63 63 67 68 68 67 67 66 63 63 67 66 66 67 68 65 62 57 57 58 59 57 58 61 61 61 64 66 66 66 66 65 65 65
53 56 62 58 56 58 60 59 60 59 61 67 68 70 74 73 71 69 71 72 73 72 72 72 73 74 71 70 63 59 61 65 65 67 65 65 66 68 69 70 69 67 66 67
53 60 60 57 57 60 57 57 58 62 66 72 72 73 74 78 82 82 81 78 78 77 77 75 74 76 77 76 74 71 69 70 72 72 67 67 72 75 71 71 73 76 76 76
57 60 62 60 59 55 58 58 57 62 72 72 71 77 77 78 81 81 82 83 84 84 84 85 85 84 81 79 79 76 73 70 67 66 69 71 72 72 74 76 78 78 80 80
54 57 60 60 61 62 60 60 62 64 61 65 67 71 77 83 88 88 89 88 87 88 90 89 88 86 84 84 83 82 82 81 80 78 81 81 83 83 82 84 82 81 83 87
53 58 52 59 61 58 60 65 65 59 62 63 67 72 74 73 75 76 76 76 78 82 87 86 88 92 92 89 90 91 90 84 83 83 82 84 83 83 86 87 90 90 90 94
56 55 55 49 56 57 58 62 61 62 60 61 61 62 63 66 69 69 70 70 69 69 70 71 68 72 81 90 98 99 98 96 94 92 91 91 93 94 96 98 99 99 99 101
50 52 40 45 47 49 54 57 56 59 60 61 59 58 59 60 61 60 60 58 55 56 57 57 57 60 65 70 75 79 83 88 91 97 99 100 101 103 104 105 103 101 93 83
43 40 46 48 44 48 48 52 51 54 54 53 52 52 53 52 54 54 54 53 51 54 54 53 52 53 56 58 60 63 67 71 77 80 79 79 79 80 77 76 76 72 60 62
41 47 46 44 43 46 45 47 47 49 51 46 47 48 48 49 50 49 50 47 45 47 47 47 47 52 52 53 54 56 60 63 66 64 63 60 60 59 61 63 59 59 66 65
42 43 44 42 43 44 45 46 46 47 48 48 46 48 47 46 45 45 46 44 43 44 44 44 43 47 49 51 51 54 58 61 60 51 55 55 55 57 56 63 65 69 86 88
40 44 45 45 45 45 45 45 46 46 47 47 47 45 45 45 45 43 45 44 42 43 44 45 46 50 50 50 51 54 54 56 56 61 61 62 66 65 66 68 67 77 83 96
39 41 42 44 43 43 43 44 45 45 47 48 47 46 44 44 44 44 45 46 43 45 48 51 55 55 58 56 58 61 60 64 64 63 65 66 68 70 74 76 79 80 86 97
36 37 39 40 40 42 44 47 47 47 49 49 48 47 47 45 45 45 46 48 48 47 51 56 59 62 64 66 65 67 70 70 69 72 73 74 76 78 81 82 85 90 93 97
37 39 40 40 43 45 47 48 49 49 48 47 47 47 47 47 48 47 50 50 50 50 56 61 65 67 69 71 71 72 75 73 77 76 76 79 80 85 90 92 94 98 103 108
37 40 42 44 45 46 46 46 46 45 45 44 43 43 45 46 48 49 50 50 51 55 58 62 70 73 76 76 76 77 80 82 84 85 86 88 90 93 97 98 100 104 107 110
35 36 35 34 34 33 34 36 37 38 38 41 43 45 46 47 48 50 53 50 50 52 56 58 64 68 70 73 79 83 83 86 89 91 92 96 97 98 101 106 108 111 111 114
33 34 34 34 34 33 32 32 33 32 33 36 40 43 46 47 48 47 49 48 49 49 49 50 56 60 60 62 68 74 87 87 90 94 97 101 101 103 107 109 111 113 113 116
32 34 34 33 32 33 33 32 33 33 32 34 40 43 43 44 43 42 41 43 44 46 47 47 51 56 59 60 60 61 64 70 74 75 80 97 108 108 105 106 109 112 113 115
31 31 32 33 34 34 34 35 36 37 37 36 37 38 40 40 39 38 39 41 44 45 47 48 50 54 58 61 63 63 65 66 67 69 72 75 79 87 95 98 97 95 93 93
37 38 38 39 40 42 42 43 42 41 40 39 37 36 36 37 38 40 42 43 44 47 50 52 53 55 57 59 62 65 67 68 69 70 71 72 74 76 79 83 85 86 86 86

GFSNGP_250_spd_105.txt.gz
Wind_Speed
57 54 50 47 47 47 49 47 51 54 52 51 46 42 40 51 46 52 54 51 46 45 43 43 46 42 42 39 37 37 34 35 32 33 32 32 29 29 28 25 25 27 28 25
52 52 47 47 45 46 44 45 49 50 47 47 45 43 49 54 50 55 56 53 51 48 45 48 43 41 34 35 36 38 36 38 39 37 34 32 34 36 35 33 31 33 32 31
55 51 47 46 45 44 44 48 51 49 48 49 49 50 56 55 65 57 53 51 50 53 53 51 50 41 39 31 31 37 42 40 40 37 36 38 36 37 41 38 38 38 39 41
49 48 51 48 45 43 46 47 48 50 54 55 56 59 63 66 64 63 58 59 62 56 55 53 51 48 44 46 44 49 44 41 39 39 40 41 42 44 43 42 41 42 43 42
41 46 48 44 42 43 45 46 48 49 49 53 58 61 66 68 66 65 61 64 64 59 55 55 53 50 54 48 55 53 46 44 45 45 44 45 48 48 50 48 47 48 47 47
41 46 47 42 42 45 47 51 51 51 53 58 61 64 68 66 61 61 64 59 56 60 62 57 46 50 54 51 55 54 55 55 51 49 47 49 50 49 51 49 46 47 49 51
47 50 47 44 45 48 51 55 56 57 57 59 62 65 66 67 69 69 63 60 64 65 65 63 55 54 61 69 70 69 67 61 55 55 53 55 57 58 57 55 58 59 59 56
51 51 51 49 50 50 51 56 57 59 61 63 65 66 67 70 69 68 64 67 70 68 68 70 67 64 64 70 72 75 75 70 64 60 62 62 60 59 58 60 62 64 65 64
50 55 55 48 49 50 52 57 58 61 62 62 63 67 70 70 70 71 75 71 68 71 71 73 71 67 62 67 74 74 72 69 69 69 67 68 67 67 65 65 60 62 69 69
50 52 49 47 48 52 53 56 60 61 60 59 63 67 67 68 70 70 70 76 77 77 73 71 71 71 68 66 66 66 70 73 74 73 74 75 74 73 74 72 71 76 76 72
50 51 53 51 48 51 56 59 62 61 59 58 59 61 64 68 69 69 70 70 71 71 70 68 66 65 66 69 70 71 73 73 74 75 75 76 77 78 79 79 77 78 80 81
50 52 52 51 52 54 58 60 65 63 61 61 60 60 62 64 66 68 70 71 70 72 75 75 73 73 74 74 73 72 72 74 77 80 83 84 84 82 84 84 85 84 83 88
52 52 53 55 55 57 60 61 63 62 63 65 68 69 69 69 69 69 69 68 70 74 75 76 78 80 82 83 84 83 83 84 84 84 84 85 85 87 87 88 89 89 90 89
53 55 55 58 59 61 61 60 62 62 63 65 67 69 69 69 69 71 71 72 74 74 73 74 75 76 78 81 83 83 82 83 85 86 85 86 87 86 87 90 91 90 93 91
52 53 56 59 57 54 54 56 57 60 62 65 67 68 69 69 68 70 71 72 73 74 73 72 74 76 78 80 84 83 81 84 86 89 92 91 91 90 90 93 95 97 98 98
43 41 43 40 39 42 47 52 54 56 59 63 64 65 64 65 65 64 65 67 68 69 69 69 69 69 70 70 70 72 72 70 72 73 75 77 79 80 82 86 90 91 91 92
40 42 40 40 38 40 45 48 51 53 54 57 59 60 60 60 61 62 64 64 64 64 63 64 65 65 65 65 64 64 65 64 66 67 66 69 69 69 71 74 76 74 77 80
40 40 38 39 42 46 48 51 50 50 51 52 54 56 59 62 63 63 62 61 61 61 60 60 60 61 61 61 60 60 63 63 65 64 65 65 65 67 68 72 75 74 75 74
40 40 39 39 41 43 45 46 49 51 52 55 57 59 60 59 58 58 58 58 58 58 58 57 57 58 58 58 60 60 59 62 63 64 65 65 66 65 67 69 70 71 71 71
40 40 40 42 44 48 52 56 57 57 59 59 59 58 57 56 56 56 56 56 57 57 57 57 56 57 56 56 57 59 58 59 63 63 65 65 65 66 65 67 68 69 71 72
39 39 40 41 43 45 46 47 50 53 55 56 57 56 54 53 53 53 54 54 54 54 55 57 57 58 58 57 57 57 58 58 58 60 62 63 64 66 66 68 70 70 70 74
41 41 41 42 43 44 44 46 48 50 52 54 55 55 55 55 54 53 51 51 53 56 59 60 60 59 58 56 55 56 58 58 59 60 62 63 65 66 67 68 71 72 73 74
40 41 42 43 44 45 47 47 48 49 49 49 50 50 51 50 51 52 54 56 57 59 59 58 57 57 56 57 56 56 57 58 58 59 60 62 64 64 65 66 69 72 77 81
40 40 41 42 43 44 44 46 47 47 48 49 50 50 50 51 52 54 56 57 56 55 54 53 53 53 53 51 51 52 52 52 55 57 59 60 61 61 63 65 67 69 72 75
42 42 43 45 45 45 46 47 47 47 47 48 50 51 52 52 52 51 52 52 52 52 51 51 53 52 50 47 46 46 47 49 51 53 55 57 57 59 61 63 65 68 69 70
42 42 42 43 44 45 47 47 47 47 47 48 48 49 49 49 48 47 48 49 50 51 53 54 54 54 53 51 49 48 48 49 51 52 54 56 58 60 62 64 66 67 69 70
38 39 39 40 40 41 42 43 44 43 43 43 43 45 45 45 47 48 49 51 52 54 53 53 53 52 50 49 48 49 50 51 52 53 55 57 58 60 62 64 66 67 69 72

GFSNGP_250_spd_108.txt.gz
Wind_Speed
59 57 57 58 59 57 55 50 52 52 56 59 59 59 56 52 46 38 36 40 52 60 52 47 48 51 46 41 39 42 42 42 36 38 33 31 34 33 32 29 30 29 31 30
56 56 54 55 56 56 54 49 49 51 53 57 59 58 57 51 48 41 37 48 59 60 63 57 56 56 49 44 41 41 42 45 42 38 36 37 34 35 34 33 31 31 29 29
53 51 49 52 52 52 47 47 48 53 54 57 59 56 52 52 50 45 41 58 59 49 62 64 66 62 54 50 46 45 39 39 44 43 42 41 41 40 37 37 36 36 35 32
50 49 48 46 42 44 47 48 51 53 53 55 55 52 51 52 53 48 50 60 54 57 65 63 59 57 53 52 47 48 43 39 37 46 46 45 47 46 44 40 38 36 35 37
48 48 40 39 42 46 46 48 49 50 49 48 49 54 57 59 58 55 61 57 61 56 64 61 58 57 55 53 48 49 49 36 40 50 48 47 46 45 50 50 47 42 42 43
47 42 39 39 43 43 42 44 45 46 46 50 56 56 61 62 59 61 70 56 63 61 62 62 61 58 56 57 49 51 52 56 48 53 52 50 46 46 46 46 46 48 50 49
42 39 38 41 43 43 45 44 46 50 54 58 56 54 54 56 59 65 66 63 60 57 59 64 63 62 59 58 57 56 55 52 57 59 56 55 51 53 55 58 57 53 49 49
33 32 37 42 42 44 47 49 49 53 56 55 50 50 53 57 61 71 76 78 73 65 66 65 64 61 58 59 62 62 59 58 64 58 64 66 61 59 57 56 57 59 60 59
34 42 47 44 45 47 50 51 52 53 53 53 54 59 60 61 64 76 76 76 77 75 70 69 69 70 66 63 63 62 68 64 64 69 71 72 73 70 65 62 62 63 65 62
41 45 47 49 49 49 52 52 52 52 51 54 57 61 63 66 65 70 73 78 73 74 72 67 63 62 65 69 66 69 65 71 77 78 79 80 82 82 80 77 70 67 68 68
47 49 50 52 51 52 53 53 52 52 53 56 60 64 68 70 72 68 73 72 68 70 70 73 69 75 71 68 69 71 73 72 73 76 77 80 84 86 85 85 78 77 79 77
47 46 49 51 50 50 55 55 58 52 51 53 62 66 69 71 70 70 68 71 71 73 73 71 70 77 79 78 77 77 79 79 80 77 74 75 78 84 85 85 86 85 84 84
44 49 52 51 50 49 52 58 56 52 54 55 57 64 67 68 70 68 69 70 75 78 80 77 76 74 78 83 85 85 84 81 77 73 72 72 73 75 76 79 79 79 80 80
44 49 53 55 57 59 57 59 54 57 55 54 56 61 64 65 69 72 72 74 75 76 76 77 77 78 78 80 81 81 80 80 79 77 75 77 79 81 83 84 85 86 87 88
42 47 51 53 55 54 54 54 59 61 60 58 59 59 62 64 66 68 71 74 76 77 77 78 78 79 79 79 81 83 83 83 83 83 82 84 87 87 87 88 89 90 88 89
40 43 45 47 51 50 50 53 54 56 59 60 60 61 62 63 65 66 67 68 69 70 72 74 76 78 79 79 79 81 82 82 82 82 81 82 85 89 90 90 90 91 92 93
38 41 43 44 41 43 45 46 50 52 53 55 59 61 63 65 66 68 69 70 72 73 73 73 74 75 76 77 78 79 79 79 80 80 77 76 77 79 82 82 84 85 89 88
36 39 41 43 43 44 44 44 48 51 53 55 58 60 62 65 67 69 70 71 72 72 72 72 73 74 75 75 74 73 74 75 76 76 76 75 74 73 74 74 76 80 82 83
38 40 42 43 44 44 45 48 52 55 57 58 59 60 62 63 64 66 68 69 70 71 72 74 75 75 73 72 72 72 71 71 71 71 71 70 70 70 69 70 72 75 76 77
38 39 40 41 43 45 46 49 51 54 56 57 58 58 60 62 64 65 66 68 70 71 72 72 70 69 68 67 67 67 67 67 68 69 70 69 69 69 69 68 69 70 71 72
42 42 42 42 43 43 45 49 53 56 58 60 59 59 62 65 66 68 69 70 69 69 68 68 67 66 64 64 66 67 69 69 68 67 68 69 70 70 71 71 70 71 70 70
39 41 42 42 43 43 44 47 49 52 56 60 62 63 64 65 65 65 66 66 66 66 66 66 65 64 65 67 68 69 69 68 68 67 66 66 67 68 68 69 69 70 71 72
38 39 41 42 42 43 45 47 48 49 50 51 53 55 57 60 61 61 62 62 62 61 62 62 63 65 68 67 67 66 66 66 67 67 66 64 64 65 66 66 65 66 66 67
38 39 41 41 42 44 44 46 47 47 48 49 50 51 52 54 55 57 58 60 61 61 62 63 64 65 65 66 64 62 61 62 62 58 54 54 56 58 58 59 61 64 65 66
39 41 42 42 43 45 46 47 49 50 50 51 52 53 54 54 55 57 58 59 59 60 61 62 62 63 63 62 61 59 56 56 52 50 51 52 52 53 56 57 59 60 62 63
41 42 44 45 46 47 48 49 49 49 50 50 51 52 53 54 55 56 57 58 59 60 60 60 60 59 58 56 56 55 55 55 56 57 56 56 55 56 56 56 57 58 60 62
44 45 45 44 45 46 47 48 49 51 52 52 52 53 53 52 53 54 55 56 56 56 55 55 55 56 57 58 58 58 58 59 59 57 56 55 54 55 56 57 58 60 62 63

GFSNGP_250_spd_111.txt.gz
Wind_Speed
61 61 61 60 60 58 58 57 58 58 59 64 68 73 74 75 72 67 64 57 45 43 46 36 39 45 43 45 50 47 47 45 40 39 37 34 37 36 35 33 33 32 33 36
52 54 54 54 56 57 52 51 49 52 56 58 62 64 66 71 72 64 62 54 48 47 45 42 44 44 49 52 54 54 49 48 47 40 41 39 36 41 39 39 38 37 34 37
45 47 46 49 49 50 49 49 49 48 51 55 59 62 65 67 67 62 59 54 52 48 46 52 59 56 51 54 58 57 52 47 46 43 41 42 40 41 40 43 44 44 41 40
39 42 45 45 44 45 46 48 49 50 51 54 56 59 60 61 59 57 58 56 52 49 45 60 65 58 53 55 56 54 48 46 45 42 44 48 50 48 48 47 45 45 45 45
37 41 42 43 44 45 47 47 45 47 49 52 53 56 55 55 54 55 58 58 54 51 49 66 65 60 59 58 57 57 56 48 48 51 45 46 49 51 48 48 48 47 47 48
40 40 38 39 41 40 37 36 41 45 46 47 51 53 53 54 50 53 58 59 57 57 56 57 72 67 69 62 61 61 57 56 52 51 55 54 45 50 51 51 51 51 52 52
42 39 39 40 40 40 43 40 43 45 47 49 50 51 53 49 48 55 59 61 59 57 56 65 64 67 70 69 62 66 62 59 54 51 54 60 61 59 57 54 56 55 53 52
41 41 40 40 43 42 40 42 45 46 48 48 50 51 49 45 50 55 60 62 61 61 62 66 69 62 65 66 71 64 62 52 59 55 55 57 55 50 54 56 57 58 57 58
41 37 41 43 42 42 44 46 48 48 48 51 53 53 50 49 52 57 59 60 61 60 65 69 74 67 66 60 66 65 59 64 60 54 58 59 59 59 64 65 62 61 66 69
36 36 40 43 43 44 45 47 46 47 48 49 49 48 50 52 55 58 60 62 61 67 70 70 70 67 65 67 62 64 65 69 67 69 65 65 67 66 65 67 68 67 71 74
38 39 42 44 46 46 44 44 44 46 47 46 44 47 51 54 58 60 60 61 63 72 76 66 61 67 68 65 68 71 72 71 70 69 73 71 69 71 70 70 73 76 78 80
39 43 45 47 50 51 48 45 45 47 48 48 45 47 53 57 59 62 62 63 68 73 79 73 70 67 67 70 73 72 71 73 71 70 71 73 76 74 78 80 81 85 86 86
35 44 47 49 51 53 51 51 49 51 49 45 46 48 53 59 60 60 60 65 71 75 82 80 79 77 78 76 71 73 74 74 73 74 74 77 78 77 82 82 83 84 85 86
37 41 44 47 48 50 49 50 52 50 48 49 48 46 49 56 60 62 62 64 66 77 79 82 80 80 82 81 77 79 79 78 76 78 82 87 81 82 83 87 88 88 91 94
34 36 39 43 45 46 49 49 51 49 43 46 47 45 46 51 58 62 63 63 66 69 69 75 81 79 73 73 74 76 80 81 80 81 84 90 92 93 93 95 97 99 97 91
34 37 39 42 45 44 44 41 44 46 47 47 46 44 46 50 54 60 64 66 70 72 71 73 72 72 72 75 78 80 82 83 85 86 87 88 90 92 93 94 94 93 93 93
32 34 35 38 42 45 45 43 46 48 48 48 48 46 48 50 52 56 60 66 67 71 72 75 77 77 78 79 80 82 84 86 88 89 90 91 92 95 95 94 93 93 93 92
32 33 34 35 39 42 42 41 43 43 43 46 48 50 52 53 54 55 57 61 66 70 73 75 77 80 82 82 83 85 86 89 90 90 89 90 92 92 91 90 88 86 86 86
35 35 36 37 38 40 41 42 42 42 44 45 48 50 54 57 59 61 62 63 64 67 70 72 74 76 77 77 79 80 82 83 83 83 84 84 84 84 85 85 85 84 84 83
35 36 37 38 38 39 41 43 44 45 46 48 50 53 55 57 59 60 61 64 66 68 70 71 73 74 76 76 77 78 79 79 79 79 79 81 81 81 80 80 81 81 79 77
36 38 39 40 41 41 42 44 45 46 48 50 52 53 54 56 56 57 59 62 63 65 67 69 70 71 73 74 75 75 76 74 73 73 74 76 77 77 78 77 76 74 76 75
36 37 39 40 41 42 42 43 44 46 47 49 51 54 56 57 57 58 60 62 63 64 65 65 66 66 68 68 68 68 68 69 71 72 73 74 73 73 73 74 73 73 74 73
36 36 37 38 39 41 41 42 43 44 47 49 51 53 55 56 56 56 57 59 61 63 64 65 67 68 69 69 70 70 70 71 71 72 71 71 71 70 71 73 71 70 70 69
36 37 39 41 42 44 45 45 46 47 46 47 49 50 52 52 54 55 57 59 61 63 64 65 65 66 66 67 67 68 68 67 68 68 68 67 65 67 69 68 66 63 61 64
35 36 38 40 41 43 44 44 45 46 46 47 48 49 51 52 53 54 56 57 58 60 61 63 63 63 64 64 64 65 65 65 66 65 65 64 61 59 61 59 57 56 59 60
36 37 37 38 38 39 40 41 42 44 45 46 47 48 50 51 52 54 55 56 57 58 59 60 60 61 62 62 62 63 63 64 64 63 60 58 58 57 56 56 58 60 59 60
39 40 41 42 43 43 44 45 46 47 48 49 50 51 51 53 54 55 55 56 57 57 58 59 60 60 61 61 61 60 60 59 59 58 58 58 58 58 58 60 61 60 60 60

GFSNGP_250_spd_114.txt.gz
Wind_Speed
46 49 52 58 60 60 62 62 60 55 61 60 65 64 63 64 62 60 58 55 52 52 48 47 46 39 47 46 40 43 46 48 47 42 44 44 41 37 34 33 30 29 43 50
38 46 50 54 57 58 56 53 54 56 55 59 61 62 68 69 68 68 66 64 60 55 55 50 44 40 48 44 43 51 49 46 43 44 43 41 43 42 36 38 37 35 34 38
30 38 45 47 50 51 51 47 50 53 52 56 55 58 65 69 69 68 66 66 63 64 61 57 43 43 50 42 45 55 55 49 47 45 44 39 37 40 38 39 43 43 43 41
27 34 39 43 43 43 44 43 44 47 47 53 54 57 59 62 64 68 69 67 64 62 57 56 45 48 46 41 34 53 51 52 52 50 48 45 46 42 42 43 43 44 47 44
28 32 36 39 42 41 39 39 45 48 49 54 54 56 59 61 61 61 59 61 61 64 63 59 49 55 48 55 51 61 54 58 58 56 53 48 45 48 50 47 46 47 48 49
30 32 36 38 38 38 40 44 44 44 48 51 51 52 53 53 50 50 50 52 56 61 61 59 53 59 54 62 60 66 63 62 60 55 53 52 53 52 49 49 51 50 52 54
32 33 33 34 37 39 42 43 39 42 46 46 47 48 46 47 48 48 48 48 53 58 61 60 58 63 59 54 60 64 64 62 58 52 55 53 51 54 53 56 53 53 56 58
33 32 32 35 37 39 40 39 39 40 43 44 47 46 49 45 46 45 46 48 50 55 60 60 63 66 72 68 58 63 60 59 61 58 56 62 56 57 55 55 57 63 62 60
35 36 35 37 38 39 40 41 42 45 49 46 46 47 48 47 46 46 46 47 47 52 55 59 65 65 73 78 71 62 62 68 65 66 66 60 62 60 62 59 60 60 63 66
36 39 39 42 43 43 46 49 53 50 48 46 47 48 49 47 41 41 43 45 46 51 55 62 66 64 68 80 81 72 64 70 74 64 66 67 67 63 58 58 60 61 65 65
36 42 45 46 47 47 49 51 50 48 47 48 48 49 45 48 41 41 44 46 48 51 56 62 65 67 69 69 85 83 72 67 77 71 68 71 69 67 66 64 64 65 70 72
38 41 45 47 49 50 50 50 48 48 48 48 47 48 48 44 41 42 45 47 49 52 56 63 66 68 67 74 76 80 84 76 74 80 82 80 77 74 73 75 73 73 73 77
35 41 47 49 51 51 50 48 50 51 48 48 48 47 46 42 45 45 47 50 52 53 57 60 63 66 66 69 72 78 81 79 77 74 75 72 74 77 79 79 79 83 84 83
31 38 41 44 48 50 49 49 48 46 48 48 47 45 45 43 45 47 48 51 54 55 56 59 62 65 68 67 75 81 85 83 82 79 78 74 75 78 81 82 82 84 89 89
30 33 36 40 45 46 46 45 46 49 49 49 43 44 43 44 45 47 49 52 54 57 59 60 63 66 66 74 75 81 88 85 83 81 82 80 81 83 85 84 85 87 90 92
29 32 36 43 45 45 44 44 46 46 49 45 43 45 44 43 44 46 48 53 57 60 61 64 65 66 70 69 81 80 78 82 81 80 81 82 83 85 86 86 88 91 91 92
29 31 35 39 43 43 44 43 42 42 41 40 36 39 40 39 41 44 46 50 54 57 61 63 64 68 69 73 73 82 88 88 89 89 90 89 91 91 93 97 95 95 97 99
29 31 33 36 39 40 42 42 42 40 38 40 40 39 43 43 42 44 47 50 52 55 58 62 65 64 67 71 74 79 82 86 90 93 93 92 93 91 91 91 92 92 93 95
30 31 33 36 37 38 40 41 40 38 40 42 41 43 46 47 47 48 49 50 52 54 57 60 63 66 69 70 71 73 76 80 84 86 87 87 87 88 88 90 93 96 97 97
31 32 34 36 38 39 40 40 41 42 42 43 43 45 46 47 49 50 52 53 54 55 57 60 62 65 67 69 72 74 76 78 79 81 84 87 90 91 91 92 93 94 93 93
33 33 34 36 37 38 40 41 41 42 43 45 46 48 50 52 53 54 55 57 57 59 60 61 62 65 66 68 71 73 76 78 80 81 83 85 86 86 86 87 88 87 86 86
33 35 36 37 38 39 40 41 42 44 45 47 49 50 50 50 51 53 55 57 58 59 61 62 63 65 66 68 70 72 73 74 76 77 78 78 78 77 77 77 77 77 78 79
33 35 36 38 39 41 40 40 40 41 42 44 46 47 49 51 51 51 52 53 54 56 57 59 60 62 64 65 67 67 68 69 69 70 70 71 71 71 71 72 72 72 73 73
33 34 36 37 38 38 39 41 42 42 43 43 44 45 46 49 50 51 51 52 53 55 55 56 58 59 60 61 62 64 65 65 66 66 66 66 66 67 69 69 69 69 68 68
36 37 38 38 39 39 40 42 43 45 46 46 47 49 50 50 51 52 52 54 55 56 56 56 57 58 58 59 60 60 61 62 62 63 64 65 65 65 66 67 66 67 66 66
37 38 39 40 41 41 42 42 43 43 44 45 45 46 48 48 50 51 53 54 55 56 57 57 58 59 59 61 61 62 62 63 63 64 64 64 65 65 65 65 65 64 62 60
36 38 40 41 41 42 42 43 43 44 45 46 47 49 50 51 52 53 54 54 56 56 57 58 59 60 60 61 61 62 62 62 63 64 64 63 62 62 61 61 60 59 59 59

GFSNGP_250_spd_117.txt.gz
Wind_Speed
30 36 44 44 47 50 54 54 57 58 59 63 59 58 62 65 62 59 56 57 53 53 53 57 61 61 62 60 56 54 53 53 44 41 42 47 45 41 42 43 36 36 43 41
27 33 40 42 46 50 50 52 51 52 56 60 49 56 59 60 57 54 58 57 52 50 50 51 55 57 58 56 52 51 53 49 40 40 45 48 47 40 41 44 40 39 35 38
25 31 36 41 46 47 47 47 45 46 52 50 33 38 46 55 60 66 63 60 58 53 51 49 48 47 50 50 51 47 50 41 37 41 45 46 42 42 42 46 44 42 41 36
26 30 35 40 39 41 44 41 39 45 48 47 52 49 70 64 64 69 72 63 63 60 56 55 55 53 53 53 49 45 47 36 43 40 45 46 43 44 44 45 43 45 45 42
23 27 30 32 34 36 34 35 39 41 42 50 53 66 76 65 63 70 73 67 63 64 62 60 61 58 56 54 47 43 43 43 46 48 50 48 46 47 46 44 40 45 42 42
26 29 31 32 33 32 29 29 35 37 43 48 53 56 64 64 65 70 69 62 57 63 65 67 67 65 62 56 47 45 37 45 49 43 52 50 50 49 49 50 48 46 42 41
29 30 30 30 31 33 36 37 35 37 40 45 49 49 53 57 60 62 57 49 48 55 66 67 67 68 66 61 51 48 41 44 48 45 54 55 55 52 53 52 54 55 57 54
31 33 33 33 34 37 41 40 32 32 44 49 47 46 47 44 46 46 46 46 50 53 59 64 66 67 67 61 56 59 59 63 56 59 55 55 66 61 59 53 53 53 54 56
33 35 35 36 39 42 43 46 44 44 45 45 41 43 44 42 42 44 46 48 50 52 53 56 59 61 64 64 62 67 62 58 54 59 69 60 59 68 66 63 55 58 58 57
36 36 38 39 42 43 46 45 48 50 45 44 44 44 41 41 42 44 44 45 45 45 47 49 52 54 57 61 65 69 72 71 63 59 68 72 60 66 61 59 64 62 63 62
36 39 41 42 44 47 48 47 47 44 45 45 44 43 41 42 45 44 45 42 42 43 44 45 46 49 53 58 62 73 78 78 65 62 62 59 64 70 66 69 68 68 69 70
36 41 43 46 47 49 51 51 53 56 49 48 46 46 48 47 47 48 43 41 42 43 44 45 46 49 52 58 62 72 73 79 75 73 77 74 74 73 70 63 73 78 73 72
35 34 35 43 49 51 53 54 56 53 52 51 48 46 47 46 48 48 42 38 41 43 44 44 44 47 52 57 63 70 80 80 78 73 75 84 82 75 69 76 81 82 78 74
35 38 42 42 47 51 54 55 55 51 48 51 49 49 48 49 49 46 40 39 40 42 44 45 46 48 52 55 64 72 83 85 81 84 85 84 80 72 71 76 79 81 84 84
31 35 40 44 48 49 51 54 55 56 53 53 52 51 52 52 49 44 41 41 42 42 44 46 47 49 51 55 61 70 73 80 91 94 91 91 87 82 81 80 82 82 91 92
31 33 34 40 44 47 48 48 49 49 47 50 51 50 49 48 46 45 42 43 44 45 46 48 49 50 52 54 59 65 70 75 76 80 81 95 100 98 94 95 91 89 88 91
30 30 31 35 40 43 45 46 45 44 46 46 46 48 47 47 47 46 43 42 45 47 48 50 52 52 54 56 59 63 66 70 75 77 80 81 89 101 103 102 103 101 101 101
31 32 34 37 40 42 45 47 45 46 45 44 45 47 46 45 46 46 42 42 45 48 49 51 52 53 56 58 59 62 66 68 72 75 76 79 82 89 97 101 102 103 104 101
32 34 34 36 37 41 42 43 43 43 44 41 42 43 39 39 42 44 45 44 45 48 50 51 52 56 58 59 62 64 65 67 71 74 77 78 80 84 87 92 99 101 104 105
32 34 36 38 39 41 43 44 44 43 42 42 40 39 41 42 44 47 48 49 49 50 52 54 55 57 60 64 65 65 67 69 71 71 72 76 78 80 83 84 87 96 99 100
33 34 36 38 40 42 43 44 44 45 45 44 43 44 46 46 48 50 52 54 54 54 55 56 57 58 60 62 63 65 67 69 70 72 74 76 78 79 80 81 83 85 87 89
33 34 35 37 40 42 44 46 46 46 45 46 46 48 49 50 50 52 53 55 56 57 59 60 61 62 63 64 64 65 66 67 68 70 71 73 74 76 78 79 81 83 85 86
33 33 35 37 38 39 42 44 46 47 48 49 49 50 51 51 52 53 53 53 55 56 57 57 58 58 59 60 63 65 66 67 69 70 71 73 74 75 76 78 79 80 80 80
32 35 36 36 36 38 39 41 42 43 45 46 47 49 49 51 52 53 54 55 55 55 55 56 57 58 60 61 62 63 64 65 67 68 69 70 71 71 72 73 74 75 76 77
33 34 35 37 37 38 39 39 40 41 42 43 44 46 48 50 50 51 52 52 54 55 56 57 58 58 59 60 61 61 62 63 64 65 66 66 67 67 68 70 72 73 73 74
35 35 37 38 39 41 42 42 43 45 46 47 49 50 51 52 54 54 55 56 56 56 56 57 58 59 59 60 61 61 61 62 63 64 65 66 67 68 69 69 70 71 71 71
37 39 40 41 41 42 43 44 45 46 47 48 48 49 50 51 53 53 54 56 57 57 58 59 60 60 61 62 63 63 64 65 65 66 66 66 67 67 68 68 69 69 69 68

GFSNGP_250_spd_123.txt.gz
Wind_Speed
38 35 28 28 22 22 16 22 34 45 46 48 47 52 53 56 36 40 58 65 67 63 60 60 63 67 64 63 64 66 63 63 64 57 54 52 53 49 51 49 48 45 41 37
33 31 26 27 22 23 22 24 32 40 42 40 40 45 63 50 49 52 55 52 55 55 68 57 49 49 48 51 55 59 64 67 67 64 60 55 50 50 52 49 48 44 37 39
31 27 27 28 24 24 25 29 36 40 39 46 52 51 66 65 61 60 50 54 61 57 53 53 52 51 61 59 60 62 67 64 63 62 63 57 52 50 49 50 48 45 41 41
28 26 27 27 27 27 29 33 38 41 46 48 53 55 61 71 67 57 46 51 56 72 66 72 67 59 56 58 58 59 61 65 69 67 55 48 47 50 50 51 48 42 41 44
27 26 26 28 28 30 30 31 37 39 43 45 54 58 63 75 63 59 55 61 65 66 60 65 79 74 68 65 60 46 48 50 48 46 46 47 50 49 48 48 45 41 41 46
26 29 25 27 28 28 28 30 33 40 43 46 52 59 62 73 80 67 61 64 67 67 58 42 53 70 73 75 60 48 45 48 46 43 47 51 52 49 48 44 40 39 43 47
27 27 23 26 28 27 29 29 31 41 45 48 54 60 65 75 75 76 69 69 68 67 63 55 55 56 60 60 63 65 59 56 49 46 50 52 51 49 48 43 41 41 43 50
26 23 21 27 31 30 35 36 36 38 46 51 56 61 69 84 83 80 75 70 69 74 68 63 59 58 56 56 50 57 61 60 55 51 50 48 46 48 41 43 40 39 44 50
23 21 27 29 32 37 43 43 43 44 47 51 56 65 72 82 93 90 81 81 77 75 72 64 56 59 59 60 60 58 60 64 62 58 55 52 49 49 45 48 41 38 42 39
24 25 29 31 35 44 48 49 49 50 52 55 61 66 71 80 85 89 93 89 86 81 76 65 59 58 56 48 47 49 56 66 66 63 61 56 53 49 49 50 41 38 42 46
26 30 31 32 38 46 52 53 53 55 56 59 59 65 68 70 78 84 86 86 86 86 76 68 63 60 59 61 58 57 59 67 71 69 66 62 57 53 59 56 49 46 50 48
31 34 32 34 40 48 51 56 54 58 61 61 63 64 62 65 65 66 69 70 70 70 65 61 60 62 59 57 56 55 58 64 67 72 71 68 59 58 66 63 58 51 50 47
30 32 35 35 36 47 54 58 57 58 60 61 62 60 60 58 55 55 57 56 56 58 59 57 54 53 53 53 52 53 56 58 61 66 72 72 67 65 72 72 64 64 61 58
33 35 35 37 39 46 53 57 58 58 56 58 62 60 58 53 54 52 50 49 50 51 52 52 52 52 50 51 49 49 51 53 56 57 58 68 72 74 76 82 74 74 76 68
34 35 35 37 41 45 48 55 56 59 57 55 56 57 53 51 49 44 40 42 48 48 48 48 48 47 47 48 47 47 47 48 49 51 53 57 68 73 85 82 83 80 75 81
35 38 39 40 41 41 44 51 55 56 57 52 52 57 53 51 49 46 44 44 45 44 43 42 40 39 42 46 47 46 47 48 48 51 53 57 62 70 90 87 88 90 87 81
35 36 37 37 39 42 44 49 49 54 54 56 50 53 57 55 53 51 48 47 46 44 43 42 39 36 40 44 45 47 48 50 50 51 52 54 60 70 82 98 94 94 91 88
33 35 36 37 38 41 47 48 49 49 49 50 55 50 51 56 56 55 51 48 48 46 45 44 41 40 39 43 48 49 50 51 54 54 54 56 58 62 73 85 102 103 103 101
29 31 31 33 35 38 42 45 47 46 49 49 47 48 51 49 51 53 54 50 49 46 45 45 44 43 45 46 50 54 53 53 54 57 58 58 59 63 67 73 88 105 107 107
28 29 30 33 35 38 40 42 43 46 46 47 49 48 46 47 47 46 46 49 50 49 48 49 48 47 48 50 52 55 55 56 57 58 58 60 61 64 68 70 76 84 96 108
26 29 29 30 33 37 39 40 41 44 47 48 48 47 48 49 49 51 48 47 50 49 51 51 52 52 53 52 53 56 58 58 59 59 60 62 65 66 69 72 74 78 83 91
27 29 30 30 31 34 37 39 41 42 44 45 47 50 52 52 52 51 53 51 50 49 51 55 56 57 57 55 56 58 60 62 62 62 62 62 64 65 68 71 72 75 77 81
27 29 30 30 31 31 33 36 38 41 42 42 45 48 50 51 52 52 53 53 52 52 54 55 57 59 59 59 60 61 62 63 65 65 65 63 62 63 64 65 66 69 72 76
27 29 31 32 33 34 35 36 37 39 40 43 46 48 48 48 50 51 52 53 54 56 56 56 57 58 59 61 61 61 61 62 62 62 63 63 64 64 64 64 65 66 70 72
30 31 32 34 34 35 37 37 38 41 42 43 45 46 47 47 48 49 50 50 50 50 50 51 52 54 55 56 58 58 59 60 62 63 64 65 65 65 65 67 69 71 73 76
33 34 35 36 37 38 39 41 41 42 44 44 46 48 49 50 50 50 51 51 51 52 53 55 55 56 56 57 58 59 61 62 63 64 65 66 68 69 70 71 72 73 74 75
34 36 37 38 40 42 42 43 44 45 46 47 48 49 51 52 53 54 54 55 55 56 56 57 58 59 59 60 60 61 61 62 63 64 64 65 66 66 67 68 69 70 71 72

GFSNGP_250_spd_126.txt.gz
Wind_Speed
55 56 52 46 36 27 21 23 19 30 34 40 41 42 52 40 37 42 35 47 54 51 47 51 54 57 60 58 52 52 57 59 58 60 61 61 61 61 56 55 54 54 54 53
54 53 46 39 31 25 22 19 24 30 34 36 42 47 56 51 45 48 54 54 54 57 55 55 58 58 56 54 62 69 72 62 61 64 66 63 62 64 59 55 51 49 52 49
52 48 40 34 29 24 21 23 27 33 35 39 49 50 62 58 57 55 56 59 51 61 62 60 58 57 58 56 55 56 59 58 61 65 64 63 60 60 53 55 53 51 48 43
47 43 35 33 29 23 22 27 30 37 42 42 48 52 71 62 58 57 53 54 58 60 56 58 60 65 67 68 70 64 60 61 58 60 61 59 59 58 57 58 58 53 51 44
42 38 32 29 28 23 22 24 33 37 48 50 53 56 69 80 67 60 62 61 65 60 59 55 60 61 64 70 69 64 53 53 57 55 54 59 64 67 61 57 55 58 49 47
38 34 28 26 26 22 25 24 33 41 47 52 56 61 58 79 79 75 73 62 63 64 67 63 63 60 56 55 57 58 55 55 61 57 50 48 52 57 57 56 52 47 47 49
35 30 23 22 25 24 24 27 27 42 46 53 54 58 65 72 81 78 77 77 71 71 73 67 62 64 61 58 58 61 59 59 57 56 58 53 45 44 43 43 45 46 49 45
31 29 22 23 25 25 26 29 27 40 47 49 55 58 64 70 77 79 80 80 75 68 72 73 63 66 65 66 66 50 68 65 64 64 67 51 49 48 45 45 48 50 48 44
30 26 27 28 28 27 30 32 30 36 44 52 55 58 66 74 81 85 84 81 79 75 74 74 68 68 57 60 63 49 46 55 59 59 55 61 56 55 48 48 47 49 49 45
30 27 29 31 30 31 32 38 37 39 44 52 56 59 66 72 72 78 84 86 87 90 85 77 76 69 65 60 58 54 51 51 55 55 50 48 55 59 57 53 53 54 51 49
30 29 29 32 33 34 34 41 43 43 45 51 59 62 66 72 76 77 79 84 87 86 84 84 79 76 74 69 62 57 55 58 56 56 60 56 57 62 62 61 54 56 54 49
29 30 30 30 33 35 38 46 48 48 47 50 57 62 66 71 76 79 81 82 84 85 87 82 78 78 76 69 63 62 61 61 59 54 50 46 49 60 67 65 60 57 57 54
28 31 30 30 34 37 39 46 52 53 53 51 54 58 64 69 72 76 77 84 86 86 87 84 80 74 70 70 70 68 65 63 61 62 62 62 61 63 68 73 66 63 58 59
28 29 30 31 32 37 40 44 49 52 56 55 55 58 61 65 68 72 76 78 83 88 88 85 85 83 81 80 79 71 66 65 61 58 60 63 62 63 66 65 69 67 63 62
28 28 29 32 34 36 41 42 47 51 56 59 59 59 60 63 65 66 67 72 74 78 80 84 87 86 84 78 74 69 64 58 54 52 52 53 54 55 54 57 65 70 69 66
27 27 29 31 33 36 41 44 44 47 52 52 55 60 63 62 62 62 61 61 63 66 67 65 65 65 64 63 61 58 56 52 51 52 51 50 49 51 54 54 58 70 73 74
26 26 30 31 33 36 40 43 46 46 49 52 55 51 59 62 62 60 60 59 57 56 54 56 54 53 54 53 51 51 51 50 55 54 52 52 51 52 55 57 59 63 71 80
25 26 28 28 32 36 39 42 45 46 49 50 51 55 53 56 59 58 57 61 60 55 53 52 49 49 48 49 48 48 47 48 50 52 53 54 54 54 55 58 61 63 66 75
22 24 28 30 32 34 36 37 40 44 45 47 50 50 49 45 47 51 54 53 54 56 54 54 51 49 48 48 47 49 49 50 52 55 57 57 58 58 57 59 61 65 68 71
22 24 26 29 30 32 33 35 37 40 42 41 45 47 47 47 47 44 45 50 54 54 52 52 53 52 51 51 51 50 52 53 54 57 60 60 60 60 61 62 63 65 69 72
23 23 25 28 28 29 31 33 35 37 39 39 41 44 46 48 48 49 49 44 45 51 56 57 57 55 55 55 54 54 55 57 60 62 62 63 63 63 63 64 65 65 68 72
23 24 24 25 28 29 30 31 31 34 36 38 39 43 45 48 50 50 51 51 52 52 53 53 55 56 57 58 59 59 59 60 60 62 63 65 65 64 65 66 66 67 68 71
25 24 24 24 25 26 28 31 32 32 33 34 35 39 42 47 50 52 52 55 56 56 56 57 58 59 60 60 60 61 62 61 60 60 61 62 65 66 67 67 67 67 67 68
27 26 25 26 27 28 28 29 31 34 35 36 37 37 38 41 45 50 51 50 50 50 53 55 56 56 56 57 58 59 59 59 59 59 60 61 63 65 66 66 66 66 67 67
27 28 29 30 30 32 32 33 34 35 36 38 40 41 42 43 44 45 46 47 48 49 49 50 51 53 54 54 56 58 60 60 60 59 60 60 60 61 62 63 65 66 67 68
28 29 30 31 32 33 34 35 37 37 37 39 40 42 43 43 45 46 48 49 49 50 52 52 53 54 55 55 56 57 58 59 60 61 62 63 64 64 65 66 68 69 70 72
29 30 30 32 34 35 36 36 38 39 40 40 40 42 43 45 46 47 47 48 49 50 51 52 53 55 55 57 58 59 60 62 63 63 63 64 64 64 65 66 67 68 69 70

GFSNGP_250_spd_132.txt.gz
Wind_Speed
95 95 98 105 108 101 79 56 39 34 26 18 26 34 47 48 48 45 43 48 37 32 27 32 39 45 49 56 63 73 74 72 70 67 66 67 71 72 67 66 64 57 52 55
89 92 93 96 89 84 65 48 34 30 26 23 31 43 55 56 54 48 48 53 48 51 53 45 47 51 55 60 64 72 74 74 72 74 73 69 71 74 72 64 64 64 61 57
87 86 79 76 73 63 54 41 32 28 26 25 34 46 58 59 53 50 55 55 55 53 54 45 47 55 56 60 64 69 73 75 75 77 76 74 73 71 73 73 72 70 70 72
71 70 70 67 61 53 48 38 33 28 27 28 35 46 63 66 59 60 64 60 59 58 53 51 54 53 53 56 59 65 72 75 78 79 79 79 78 79 78 77 77 76 74 70
62 63 66 61 53 48 45 39 32 29 29 30 38 48 61 69 66 65 66 66 60 57 59 63 60 54 47 47 52 60 64 69 75 76 77 79 78 79 84 83 82 80 78 77
59 61 61 57 47 46 44 40 31 30 32 32 42 50 52 73 73 72 72 72 68 63 59 57 52 55 55 56 55 57 59 64 65 67 74 75 73 74 79 81 78 80 81 80
60 61 60 55 46 43 44 42 31 29 34 36 44 52 54 59 77 77 78 76 75 69 67 61 60 63 56 60 61 60 61 61 60 57 58 62 67 66 69 70 71 75 76 77
60 58 57 55 47 43 42 43 32 28 35 38 43 53 58 59 66 75 80 80 76 76 73 69 59 59 65 65 60 60 61 60 61 64 61 60 61 66 65 67 69 70 72 72
55 55 52 50 49 47 41 42 34 32 34 42 46 51 63 63 68 71 74 75 85 81 77 72 67 67 68 66 60 63 61 58 59 58 62 62 63 66 66 65 66 66 71 74
55 57 53 52 49 48 41 40 36 32 32 43 48 49 57 64 69 76 79 78 75 80 80 77 75 71 72 66 59 56 59 63 64 64 66 67 67 67 68 68 67 70 69 73
57 58 58 56 50 45 41 37 37 33 33 38 50 51 55 65 68 78 81 81 79 79 78 76 76 73 71 68 62 61 58 60 63 63 64 62 62 62 62 60 60 62 60 57
59 59 58 54 47 43 37 34 35 32 34 36 47 53 60 68 73 75 81 87 85 84 81 81 77 74 69 70 71 68 65 61 59 55 60 59 58 54 51 53 58 61 63 61
59 57 54 49 43 39 33 31 33 32 33 33 43 52 56 65 77 83 85 83 86 85 83 83 82 80 75 74 73 72 70 68 65 61 64 63 63 63 62 62 60 58 60 62
56 53 48 44 37 34 32 30 32 33 32 36 36 48 54 56 62 76 82 91 87 88 89 86 85 85 81 79 77 78 78 77 75 69 67 66 67 67 65 63 63 63 62 66
52 45 42 36 31 29 29 29 30 33 34 36 38 40 51 55 57 62 72 78 86 92 88 89 90 87 85 82 80 79 80 77 74 71 69 69 68 68 63 61 62 62 65 67
44 38 34 29 27 26 28 29 30 33 37 37 39 39 45 54 57 57 60 66 72 81 86 92 96 92 89 88 89 90 88 84 79 78 73 69 69 68 67 64 59 60 65 58
36 31 28 26 25 25 27 29 31 34 38 39 40 40 41 47 55 57 57 61 66 70 75 78 82 86 89 91 92 91 90 84 80 80 78 73 66 67 66 62 62 61 58 59
30 26 25 24 25 26 28 29 31 33 36 39 39 40 41 43 46 54 58 60 61 64 68 72 75 78 80 83 83 86 88 84 83 83 78 73 72 68 68 64 60 60 58 57
23 22 23 24 25 26 27 29 31 32 34 37 40 40 41 43 44 48 53 58 61 63 65 69 73 74 75 76 77 79 82 85 83 79 76 74 70 67 65 64 61 61 59 60
22 22 23 25 26 26 27 29 31 33 34 35 38 41 42 42 44 46 48 52 58 61 63 64 66 68 69 70 70 71 72 70 72 71 70 68 65 67 65 64 62 61 60 60
22 23 24 25 26 26 27 28 30 32 34 36 38 41 43 43 44 46 48 48 52 58 61 62 63 65 67 68 68 69 67 67 68 69 68 66 64 66 67 66 65 63 64 65
23 25 26 27 26 26 27 28 29 31 32 34 36 39 42 45 46 47 49 50 51 52 55 60 64 65 66 68 70 70 68 68 69 69 68 68 68 66 68 69 70 71 70 71
24 24 25 26 27 29 29 30 30 31 32 34 35 37 38 41 44 47 49 50 52 53 54 55 57 60 63 67 67 67 68 70 71 70 70 70 71 71 73 74 74 74 74 73
25 26 26 26 27 28 29 30 31 32 33 35 36 37 38 39 41 44 46 48 49 51 53 54 56 58 59 61 63 66 68 69 69 69 69 69 71 73 74 74 75 75 77 75
25 26 27 28 29 30 31 32 33 34 36 36 37 38 38 39 40 41 43 45 48 50 51 52 53 55 56 58 59 60 61 63 65 67 69 70 70 69 68 68 69 70 70 71
27 27 28 29 30 31 31 32 34 35 37 38 39 40 41 42 42 43 44 46 47 48 49 51 51 52 52 53 53 54 57 59 61 62 63 64 66 67 69 70 70 69 69 69
25 26 27 29 30 31 32 32 33 34 35 36 38 40 42 43 44 45 46 46 47 48 49 51 52 53 53 53 53 54 54 55 56 57 59 61 62 63 63 64 64 65 66 66

GFSNGP_250_spd_135.txt.gz
Wind_Speed
67 70 71 72 79 82 85 86 79 62 49 39 33 26 35 39 38 28 33 35 34 30 15 13 20 26 38 45 50 54 60 45 64 65 53 48 48 54 51 56 46 47 41 42
64 65 67 67 71 76 78 79 73 64 45 34 27 28 46 41 39 39 43 40 38 37 31 18 20 33 44 53 59 55 49 62 65 72 66 60 59 63 58 60 51 48 47 49
58 55 59 63 68 71 70 70 64 51 38 32 22 33 50 51 41 44 45 49 45 44 40 35 31 32 40 56 64 66 64 67 69 70 71 71 62 64 64 54 55 52 53 62
53 54 60 64 66 65 65 66 55 46 36 32 23 35 56 59 54 53 51 51 49 47 44 49 45 44 46 54 61 63 66 70 68 72 77 74 71 70 69 65 63 65 68 71
55 58 62 67 65 64 65 60 48 42 35 31 25 34 62 66 61 59 59 59 56 56 54 54 56 58 53 56 59 66 66 72 77 73 77 73 70 70 73 74 73 73 71 74
55 62 65 64 63 66 61 53 43 38 35 32 28 33 62 72 69 65 64 63 63 61 61 56 60 60 58 56 59 60 62 67 74 79 80 78 75 76 77 77 78 77 79 81
59 63 64 62 61 61 57 47 42 37 36 33 32 33 52 78 76 70 66 70 66 66 62 59 62 59 61 62 58 59 62 65 69 75 78 78 79 79 82 81 81 81 78 79
61 62 61 62 60 57 50 44 39 38 38 33 35 37 44 68 82 77 74 72 71 70 70 67 66 63 60 55 55 56 57 62 66 70 75 78 80 81 81 81 82 84 85 84
60 59 61 61 63 55 49 42 37 40 43 36 38 40 43 59 78 84 79 74 74 73 71 72 69 67 63 54 52 56 58 59 62 67 72 76 79 78 79 80 82 85 85 83
57 61 61 62 56 52 47 41 39 39 46 40 38 41 44 52 65 82 85 80 79 78 80 77 72 69 64 62 59 60 60 60 58 59 63 66 69 73 75 76 75 72 71 75
59 60 60 58 53 48 47 43 43 41 42 39 38 43 45 50 60 67 77 85 83 81 82 80 79 77 73 68 66 64 63 60 57 58 61 62 63 64 65 67 67 67 68 69
58 60 58 57 54 50 49 46 44 40 39 36 37 43 46 49 58 64 68 72 86 88 86 82 82 85 81 79 76 70 68 67 66 62 61 62 64 67 68 68 69 71 73 76
56 56 58 56 55 53 51 46 41 36 34 33 36 42 46 46 54 63 66 69 72 78 80 82 86 85 81 81 83 82 75 72 75 73 65 60 62 63 67 70 70 70 69 71
57 58 58 56 54 53 48 41 36 31 31 31 34 40 43 45 48 58 63 68 73 76 81 79 78 77 77 79 77 76 74 75 74 73 67 65 61 60 60 62 60 58 59 63
59 60 57 54 52 47 41 36 32 29 28 28 32 36 41 43 48 52 61 65 69 75 79 82 84 81 81 81 78 78 76 78 77 77 76 70 69 70 68 65 67 69 67 67
59 56 53 49 44 39 34 29 28 27 28 28 30 35 38 43 47 53 57 61 67 70 76 82 83 85 87 85 84 84 82 83 78 77 78 76 76 76 75 75 74 75 74 73
56 52 45 40 36 32 28 26 26 27 28 31 32 34 38 40 46 51 57 61 62 66 70 76 79 82 88 89 88 87 85 84 81 82 83 81 79 79 78 76 69 68 70 66
52 44 39 35 30 28 26 25 26 27 30 32 33 35 37 40 43 49 55 57 60 65 65 69 72 76 82 87 89 91 91 91 87 88 88 86 84 85 83 79 81 78 75 72
41 38 34 30 26 26 26 26 27 28 30 32 34 36 38 40 42 46 51 56 60 63 65 65 68 70 73 77 79 80 84 87 90 92 91 90 87 86 86 85 82 79 78 76
34 31 28 27 25 25 26 27 28 28 30 31 33 36 38 40 41 43 46 49 55 60 63 64 65 67 68 72 73 75 77 77 78 80 81 80 78 77 76 74 72 72 72 71
26 26 27 27 27 28 28 28 29 29 30 31 33 34 37 39 42 43 45 47 50 54 58 62 64 65 67 69 70 70 72 73 74 75 76 77 76 75 73 72 73 72 71 71
24 25 26 26 27 28 28 29 29 30 31 31 32 34 37 38 41 42 44 47 50 53 56 58 61 64 66 68 69 70 71 72 72 73 73 74 73 74 74 74 74 73 72 72
23 24 24 26 27 28 29 30 31 31 31 32 33 34 36 38 40 42 44 46 47 49 51 55 58 62 64 64 66 69 71 71 71 71 72 73 74 76 75 74 75 75 75 75
22 23 24 25 26 27 29 30 31 32 33 33 34 35 36 37 39 40 42 43 45 47 48 49 51 53 56 60 62 64 65 67 68 69 70 70 70 70 71 74 75 76 76 77
23 24 25 26 26 27 28 30 31 33 34 35 36 36 37 37 39 40 41 43 45 46 47 48 49 50 50 51 53 54 57 60 63 65 66 66 67 68 69 70 71 71 71 71
21 22 23 24 25 26 27 29 30 31 33 34 36 37 38 39 39 40 41 42 43 44 45 47 49 50 50 50 51 52 53 54 56 57 59 61 63 64 65 66 67 68 69 71
17 18 20 22 23 25 26 28 29 30 31 32 33 34 36 37 38 39 41 42 43 43 44 45 46 47 49 50 51 52 52 52 53 54 55 56 58 59 60 60 61 62 63 64

GFSNGP_250_spd_138.txt.gz
Wind_Speed
80 73 66 65 61 61 63 62 62 65 64 59 50 47 34 31 32 34 30 31 18 20 11 3 3 11 20 25 28 31 34 35 39 41 44 42 37 34 39 41 41 43 49 52
82 63 66 63 63 63 63 62 62 62 59 59 51 45 32 30 37 41 37 34 33 27 22 17 8 15 29 36 36 31 29 31 35 32 30 38 41 46 46 42 49 53 50 52
63 62 65 69 74 72 64 61 63 61 60 58 52 39 30 29 42 47 45 38 35 32 34 30 35 43 44 48 47 48 43 44 46 42 32 39 43 52 52 51 47 54 52 52
59 63 68 72 75 70 62 63 62 61 61 58 51 34 29 30 45 54 50 45 44 39 38 36 55 48 52 59 61 61 57 50 52 48 45 47 49 49 51 50 47 52 51 53
63 67 72 74 68 64 63 64 65 62 61 55 45 32 30 27 48 60 56 50 49 45 44 46 51 54 57 65 66 65 61 55 54 55 57 57 56 51 54 54 55 63 59 58
66 72 70 70 64 63 61 64 65 64 60 51 41 36 30 27 53 66 63 54 55 54 53 51 51 56 61 66 72 68 65 62 56 59 60 67 69 65 59 63 58 64 65 65
61 67 67 62 63 61 64 66 68 66 61 48 39 36 35 31 43 70 70 64 60 60 58 56 54 56 54 68 74 79 76 69 64 59 60 71 77 76 74 67 67 62 62 65
65 64 59 62 60 64 67 70 68 66 56 43 37 37 38 36 37 66 78 70 68 68 64 62 58 58 61 63 70 74 77 77 74 70 66 75 78 81 81 76 77 78 77 77
59 61 62 62 64 67 71 71 71 60 49 41 39 41 41 39 38 51 76 80 76 70 70 70 63 62 62 68 63 73 78 78 77 75 70 77 81 85 86 86 86 89 86 83
59 62 61 63 66 69 71 69 64 55 46 43 42 42 43 42 42 47 65 83 80 79 75 75 72 68 66 67 70 64 67 70 75 75 74 76 79 85 88 87 89 87 84 82
61 61 64 66 68 70 66 59 53 50 47 43 42 43 45 45 44 46 56 75 86 83 80 78 77 75 72 66 66 67 67 59 60 65 68 74 76 81 87 89 87 89 89 87
63 64 66 67 68 64 56 52 49 47 45 44 42 42 42 43 44 47 54 62 82 91 87 85 81 79 75 72 70 67 66 64 57 61 65 68 71 75 77 79 77 84 87 86
63 67 66 64 60 53 50 48 47 46 46 43 40 40 39 41 43 47 52 58 67 85 92 90 87 83 83 81 78 77 75 73 67 64 66 65 70 71 70 73 76 75 78 79
62 61 61 57 53 50 50 49 48 47 44 41 37 36 36 39 41 44 49 54 59 69 85 91 93 90 85 85 83 80 79 78 76 72 72 69 67 64 63 63 66 69 64 69
57 56 54 52 52 50 50 50 47 43 40 38 35 33 34 37 40 42 46 51 54 60 71 84 91 95 91 89 88 87 87 87 85 82 80 80 78 78 76 75 74 71 70 67
54 53 52 51 50 50 50 46 41 37 35 33 30 30 32 36 38 40 44 48 49 53 58 69 79 87 94 94 92 93 90 89 89 86 85 85 84 82 79 76 75 73 70 70
50 50 50 52 50 47 42 39 35 31 29 28 27 27 29 33 35 37 41 44 47 50 54 59 65 75 83 88 95 93 91 92 93 91 88 86 84 82 78 78 76 76 77 78
50 50 50 48 43 40 37 32 29 26 25 26 27 27 30 32 35 38 41 43 46 48 52 55 59 64 68 74 82 85 87 86 84 83 83 83 82 82 83 83 84 84 84 84
48 47 45 41 36 34 30 27 26 24 24 26 28 30 32 34 36 39 42 44 46 48 49 51 54 59 62 64 68 72 79 81 82 84 87 88 86 85 85 82 82 82 82 82
44 40 37 34 30 28 28 26 26 26 27 28 30 31 33 35 37 38 41 43 46 49 50 51 51 53 57 59 62 64 66 72 76 80 82 82 81 82 82 85 88 89 88 90
36 32 30 30 29 28 28 27 28 29 29 29 30 32 33 35 36 39 40 41 43 47 49 52 53 54 54 56 57 60 61 63 63 66 70 74 75 77 78 80 81 79 79 79
28 28 28 29 29 29 29 29 30 30 31 31 31 32 34 35 36 38 39 41 43 44 46 49 52 54 55 56 57 58 59 61 62 64 66 66 68 70 73 76 77 78 78 78
27 27 28 27 27 27 27 28 29 30 31 31 32 33 34 36 37 38 39 40 41 43 44 46 48 51 53 54 56 57 58 59 61 62 64 66 67 68 70 71 72 73 75 77
25 25 25 24 24 24 25 26 27 28 29 31 32 33 34 35 36 38 39 40 41 42 43 44 45 47 49 51 54 55 56 57 59 60 61 63 66 67 68 69 70 71 72 72
20 21 22 23 24 24 25 25 25 25 26 27 29 31 33 35 36 37 38 39 40 41 42 43 44 45 45 47 49 51 53 55 56 57 59 61 63 64 65 66 66 66 67 68
15 17 19 21 22 24 25 27 28 29 29 29 28 29 30 31 33 35 37 38 39 40 41 42 43 44 45 45 45 46 47 49 51 54 56 58 59 60 62 63 64 64 65 66
10 12 14 17 19 21 23 25 27 28 29 30 31 31 30 31 31 32 33 35 36 38 39 40 40 42 43 45 46 47 48 48 48 49 50 52 54 56 58 59 61 62 63 63

GFSNGP_250_spd_141.txt.gz
Wind_Speed
97 89 89 96 88 83 78 79 79 71 68 67 71 70 67 51 46 41 34 31 34 36 32 19 10 9 12 15 22 33 40 47 50 49 50 54 58 62 56 54 59 60 50 43
98 94 90 83 84 82 84 86 72 69 72 72 73 70 65 46 40 39 36 32 41 41 32 23 5 4 9 16 18 24 33 42 46 51 54 54 54 54 57 60 51 44 43 46
93 92 88 85 80 87 86 76 64 70 74 77 73 68 62 48 37 37 35 39 46 45 32 20 14 12 23 26 24 22 24 25 29 39 44 45 45 45 46 49 47 44 43 48
91 80 82 79 85 88 81 65 66 73 77 78 74 68 60 45 40 35 37 40 51 46 37 26 26 26 31 34 33 30 31 28 29 31 32 38 39 41 41 47 43 38 42 41
89 86 80 82 90 84 68 69 73 77 80 76 73 66 57 48 44 35 37 42 55 48 42 39 36 36 42 44 42 39 35 37 38 32 36 41 42 40 44 46 46 47 43 48
75 79 85 84 80 72 73 75 76 76 73 73 71 67 54 51 43 39 40 41 59 55 50 48 41 44 51 50 45 48 48 41 40 43 43 45 48 40 45 41 44 41 46 50
76 80 81 82 79 75 73 71 70 76 74 72 69 65 60 49 42 39 39 41 58 60 55 52 48 52 54 58 58 55 50 50 48 50 46 44 46 45 50 52 53 49 55 56
78 79 80 79 71 69 69 73 78 79 75 73 69 63 58 49 43 42 39 45 49 66 64 59 57 61 61 66 65 59 61 58 58 57 56 57 58 55 54 56 60 58 59 59
79 73 71 69 70 71 75 77 76 76 73 72 68 62 53 45 43 44 44 46 49 65 68 66 61 67 69 68 71 67 67 68 66 62 63 67 66 66 66 62 63 64 70 71
70 64 64 66 70 75 73 74 75 74 73 72 67 59 53 48 46 47 49 45 55 55 66 73 69 70 71 75 79 77 75 77 73 69 68 68 69 70 73 72 74 75 70 71
63 66 67 70 68 69 72 74 75 74 75 73 62 58 55 53 52 52 53 53 52 55 62 75 78 70 75 80 81 83 84 84 83 80 74 70 72 78 75 74 74 80 79 78
64 63 63 64 68 71 72 73 75 75 69 64 60 56 55 56 56 55 55 54 53 58 57 68 83 81 79 80 79 84 87 88 87 89 87 83 76 75 80 83 83 82 86 85
58 60 63 64 68 71 71 73 69 67 64 59 58 55 55 55 55 53 52 51 52 56 60 61 77 88 86 83 79 81 80 88 93 90 90 85 86 83 87 83 85 89 91 93
59 62 67 68 68 72 69 66 64 61 59 58 55 53 52 48 46 45 46 47 49 52 57 59 69 85 93 88 87 83 83 82 79 78 84 90 93 90 87 89 86 83 84 91
63 64 67 71 70 66 63 62 60 58 56 54 51 48 45 42 40 39 41 41 45 49 53 57 63 74 89 93 93 90 87 84 85 82 78 76 77 81 84 78 80 80 83 83
65 69 67 64 62 60 58 58 57 54 51 47 44 43 39 36 35 34 35 36 39 44 48 53 60 66 77 87 94 93 94 92 88 83 86 82 79 75 74 73 75 75 77 78
63 62 60 57 55 54 53 54 53 48 45 42 39 36 32 30 30 30 32 32 35 40 44 49 55 60 64 78 87 94 94 94 92 91 88 87 87 87 87 83 80 78 79 80
57 55 53 51 49 49 49 47 45 42 39 35 32 30 28 26 26 27 28 30 33 37 43 45 49 54 59 65 73 82 91 97 97 99 98 96 93 92 92 89 88 88 87 87
50 48 47 48 48 46 42 40 38 35 32 30 29 28 28 28 27 28 30 31 32 34 38 41 45 50 54 58 63 70 76 82 91 99 98 98 100 97 97 96 95 95 96 94
45 47 47 46 42 39 36 33 31 31 30 29 28 29 30 30 31 32 33 34 36 38 39 42 44 47 51 54 57 62 67 73 77 83 88 92 94 96 97 97 98 99 100 100
46 45 40 38 35 33 31 30 29 28 28 28 29 29 30 31 32 33 34 36 37 39 42 43 45 47 49 51 54 57 59 63 68 73 76 80 84 89 93 95 96 94 92 91
40 36 33 31 30 31 31 31 31 30 30 30 30 30 30 31 32 34 35 36 38 39 41 43 45 47 49 50 52 54 57 60 62 64 67 72 75 77 81 84 85 87 90 92
31 29 28 29 29 29 28 28 28 28 29 29 30 31 31 32 32 34 35 37 38 38 40 42 43 44 47 49 50 51 52 54 57 59 62 65 67 69 72 74 76 77 79 79
25 26 25 24 24 22 21 22 23 24 24 25 26 28 29 31 33 34 36 37 38 40 40 40 40 41 43 46 48 50 51 52 53 55 56 57 59 61 64 66 68 70 73 74
20 19 19 21 22 23 24 25 25 26 26 27 27 27 27 28 28 31 33 35 37 38 40 41 42 42 43 44 45 48 49 51 52 52 53 55 57 59 60 62 62 63 64 66
17 19 16 16 16 18 19 21 22 24 26 28 29 29 30 30 31 30 30 31 33 35 37 38 40 41 43 44 45 45 46 48 50 52 53 54 54 55 56 57 59 61 62 64
11 14 14 14 16 18 21 23 24 24 26 27 28 30 31 31 32 31 31 31 31 32 33 34 36 39 40 41 43 45 46 46 47 49 51 52 54 55 56 57 57 58 59 59

GFSNGP_250_spd_147.txt.gz
Wind_Speed
98 97 98 98 94 93 94 94 93 95 95 89 86 86 84 89 96 92 92 93 79 70 62 52 42 47 40 30 24 15 24 25 38 49 50 60 76 76 81 78 87 91 95 97
100 95 97 97 96 95 95 94 93 90 95 90 87 85 86 89 93 96 92 81 76 69 63 51 45 47 39 31 23 13 29 34 46 58 50 65 78 82 90 85 94 83 84 88
98 101 105 98 91 93 92 87 86 87 85 82 84 84 89 93 95 92 88 81 76 76 59 51 43 44 40 32 28 16 32 39 52 62 59 66 79 88 91 82 90 87 87 80
100 101 101 92 87 82 76 79 82 84 80 79 84 87 91 95 91 87 80 81 81 72 59 43 38 43 40 34 29 24 26 46 61 66 67 71 85 89 90 91 86 84 86 91
98 102 100 94 89 84 87 82 80 77 76 85 90 91 92 93 92 90 84 82 83 68 56 43 38 40 41 36 32 31 30 49 67 71 71 77 86 93 99 94 94 84 78 83
86 93 95 88 89 90 87 77 72 79 84 86 89 88 91 93 88 86 84 85 76 68 59 49 42 41 43 38 35 36 31 46 67 75 73 75 82 96 99 91 91 90 87 81
75 83 80 80 87 85 71 69 71 76 85 90 91 96 92 88 91 86 87 82 73 67 58 52 48 46 46 40 36 40 36 43 61 76 79 80 80 83 91 92 90 89 92 84
59 64 69 81 74 64 68 76 77 79 82 87 90 93 90 91 85 86 81 75 66 61 58 52 48 49 49 42 42 46 44 46 56 74 84 84 85 86 89 91 88 88 89 82
48 55 59 57 59 67 73 75 75 82 82 84 89 95 88 90 88 83 76 67 64 62 60 55 50 48 49 46 45 48 53 51 54 70 82 96 93 92 93 97 100 93 89 77
44 47 45 51 58 62 68 75 75 74 80 87 92 88 90 88 86 75 70 69 67 64 60 55 49 47 48 46 46 48 57 55 58 65 80 91 102 102 102 100 99 85 80 84
43 40 45 53 57 59 62 67 70 75 84 87 87 89 88 80 74 72 71 67 63 60 56 53 48 45 47 46 44 49 56 59 62 67 74 86 92 102 110 106 103 95 84 83
39 44 46 49 55 60 65 70 72 77 81 84 83 77 74 75 73 70 68 65 60 58 56 53 48 44 45 46 45 48 53 63 64 68 71 76 85 91 91 90 95 99 100 92
35 40 47 53 58 62 67 71 73 76 75 70 69 71 70 70 68 65 64 62 59 58 56 52 50 45 44 46 47 48 53 60 67 71 70 77 78 83 84 85 87 86 83 88
40 46 51 56 62 67 70 70 64 62 66 70 71 70 68 66 64 62 61 59 56 54 49 45 42 41 40 43 48 50 53 59 67 71 74 73 81 82 83 82 86 87 84 83
49 55 58 62 63 58 57 61 64 66 67 68 65 63 62 61 61 60 56 52 50 48 45 42 40 38 38 39 44 50 55 60 63 71 78 79 81 87 84 87 88 88 89 89
53 48 45 48 52 58 60 61 59 59 60 60 61 61 60 58 56 54 50 46 44 41 38 36 35 34 35 37 41 45 54 61 65 66 78 82 87 87 91 91 92 94 96 94
43 45 49 52 53 53 53 52 55 57 58 57 58 58 56 50 47 44 40 39 37 35 33 31 30 29 32 34 38 43 49 57 64 67 71 82 86 91 91 97 98 97 98 100
40 44 47 48 49 48 50 51 52 53 54 56 53 48 45 42 40 39 37 36 35 32 31 29 28 27 28 31 35 40 45 51 58 65 69 74 83 89 93 98 101 100 104 106
45 48 48 47 47 48 49 49 50 52 50 46 44 42 40 38 36 35 35 34 33 32 31 30 29 29 28 28 32 36 40 46 50 57 64 69 74 86 88 93 103 99 97 107
49 46 45 45 44 44 45 48 47 43 42 41 39 38 37 36 35 31 30 30 31 31 31 31 31 31 31 31 32 33 37 41 46 50 57 63 69 75 82 91 91 97 102 100
45 45 43 41 41 43 45 42 39 38 35 34 32 31 31 30 30 30 29 29 29 29 29 30 31 32 32 33 34 36 37 39 41 46 50 55 61 67 70 78 86 96 98 97
41 39 38 39 40 41 37 35 32 30 27 28 29 28 27 26 25 26 26 26 27 27 28 29 30 32 33 34 35 36 39 41 43 46 48 51 55 58 62 69 74 80 85 93
37 36 37 38 37 33 31 27 24 26 30 27 23 23 25 25 25 25 25 26 27 28 27 28 30 31 32 34 36 37 39 41 43 46 49 52 55 58 60 63 67 71 74 78
35 36 36 34 29 27 23 21 27 23 20 23 25 26 27 27 28 29 29 28 27 27 28 29 30 31 32 34 36 37 39 41 44 46 48 51 53 57 60 61 64 67 70 74
35 35 31 27 24 21 19 23 19 21 24 25 26 28 30 31 34 34 35 35 35 33 32 32 32 32 32 33 35 37 38 39 40 42 46 49 51 53 55 58 61 64 66 68
33 29 25 23 20 17 20 17 18 21 22 22 25 27 30 32 35 37 38 39 39 39 38 35 34 34 35 34 35 36 37 37 39 40 41 43 46 49 52 54 56 58 61 64
28 24 22 21 17 17 16 17 20 19 21 24 27 29 32 35 37 39 41 43 43 43 43 42 39 37 37 36 36 36 36 36 36 37 38 39 40 43 46 49 52 54 57 59

GFSNGP_250_spd_150.txt.gz
Wind_Speed
116 111 105 102 102 101 103 94 91 86 91 89 90 92 92 92 94 97 97 93 91 83 83 90 87 80 69 59 51 50 41 31 32 32 32 35 31 31 32 33 38 47 59 71
114 107 105 111 108 107 97 90 92 92 94 96 94 95 94 94 94 94 92 92 84 81 87 91 82 78 72 64 48 47 42 33 31 30 39 37 37 41 43 43 47 52 59 75
104 108 111 112 101 105 96 93 96 97 95 95 94 94 94 93 93 93 96 87 80 86 90 89 83 83 69 57 47 47 42 36 32 33 43 41 48 52 53 55 58 61 70 80
85 90 94 88 96 97 93 92 94 96 97 97 95 93 96 99 90 89 89 81 81 85 89 90 89 79 70 57 48 48 44 38 38 40 45 48 55 57 58 62 67 70 75 76
74 77 78 78 83 83 83 87 86 89 90 93 93 94 92 87 83 86 80 80 83 85 92 90 87 80 70 56 48 48 45 40 41 43 45 55 59 64 61 63 72 76 79 83
63 69 71 73 74 81 83 84 81 88 88 86 85 83 80 80 83 77 77 84 87 89 92 86 83 77 68 56 49 48 47 41 42 47 49 63 63 70 67 68 74 82 83 91
59 58 58 60 63 77 78 81 87 92 90 88 87 86 84 85 78 77 81 85 90 92 93 86 82 75 64 58 53 50 49 44 44 53 58 61 69 71 73 68 73 80 82 93
50 49 49 57 60 68 73 79 82 85 83 83 87 84 82 79 75 82 87 90 92 94 87 83 76 69 64 62 57 53 51 46 45 56 61 67 78 75 73 73 74 82 83 93
46 44 44 47 49 56 62 71 73 76 75 76 81 73 75 73 79 85 88 92 93 85 82 78 71 70 67 62 58 52 50 48 44 55 65 72 77 83 75 81 81 85 85 91
42 40 39 40 43 48 50 53 58 59 59 60 62 65 70 78 79 86 89 86 84 82 80 75 71 67 62 57 53 51 49 47 43 54 65 71 81 83 80 85 90 92 98 92
33 31 33 35 36 36 35 35 35 42 49 58 62 67 72 78 81 81 81 82 83 79 76 72 67 62 58 53 49 48 49 47 42 53 64 75 81 89 86 85 96 100 96 97
27 30 32 31 28 25 26 34 39 44 50 56 64 70 73 74 75 79 85 82 82 80 73 66 62 59 56 52 47 46 48 46 41 50 63 71 79 88 92 85 98 101 102 103
23 23 20 19 20 25 30 36 42 47 52 59 66 69 71 77 82 81 82 81 74 68 63 61 58 56 53 49 46 46 48 48 43 50 60 70 77 81 89 96 95 102 102 102
15 17 19 20 23 27 34 42 47 52 57 63 68 73 75 73 77 78 72 68 66 63 60 54 50 46 43 41 39 41 46 50 47 51 57 66 74 81 84 92 99 102 104 103
14 16 20 25 30 35 42 46 52 58 61 65 63 70 74 71 68 66 63 61 56 52 47 44 42 39 38 36 36 38 41 48 51 52 57 66 72 79 85 90 99 105 105 106
21 25 29 35 39 45 49 49 51 55 60 64 64 62 62 61 60 58 53 49 46 43 40 39 38 36 35 32 32 34 37 42 52 57 58 63 73 77 82 90 93 102 109 108
27 32 34 33 36 41 46 51 55 56 55 55 55 54 54 52 48 46 44 42 42 40 36 35 33 31 30 28 28 30 33 38 46 56 62 63 69 77 80 85 94 95 99 114
25 28 32 36 40 42 45 45 46 47 48 48 49 47 44 43 41 39 36 35 35 36 34 32 30 29 28 27 25 26 29 33 40 49 59 65 68 73 79 82 88 95 97 97
30 33 36 39 40 44 45 44 43 43 43 43 40 37 36 35 35 35 34 33 31 30 30 30 30 29 28 28 27 26 26 29 35 41 51 60 67 71 75 80 83 90 96 99
35 39 40 40 43 43 40 39 39 40 37 33 32 28 30 31 30 29 28 28 28 28 27 27 27 28 30 30 29 29 28 29 30 35 41 49 59 67 72 78 81 84 89 97
38 39 38 40 39 37 36 37 37 33 29 25 27 31 30 27 26 24 24 24 24 24 24 25 25 26 27 28 30 31 31 31 32 34 36 40 47 57 64 72 77 82 84 88
39 38 38 37 35 35 36 36 30 27 22 24 23 19 22 23 22 23 22 22 22 22 23 24 25 25 26 27 29 31 32 33 35 36 37 40 43 46 53 59 67 73 77 82
41 36 36 34 34 35 35 29 26 21 21 19 19 22 23 22 23 23 25 28 28 28 28 28 27 27 27 27 29 30 32 34 35 36 38 41 43 45 48 51 55 61 66 70
34 35 33 33 34 35 31 25 23 20 19 17 22 25 23 24 26 27 27 28 30 31 32 32 32 32 31 29 29 30 32 34 35 36 37 39 42 45 47 50 52 55 58 61
33 32 32 34 35 32 26 24 20 19 17 20 22 23 24 24 26 29 31 33 35 36 37 38 38 37 37 36 33 32 33 35 35 35 36 38 39 41 43 46 49 52 55 57
32 32 34 34 33 28 25 21 19 17 19 22 23 25 26 28 29 31 33 36 38 40 41 42 42 41 41 41 39 36 34 35 35 36 36 36 37 39 40 42 45 48 51 53
33 33 34 34 31 27 24 20 19 19 21 23 24 26 27 29 30 33 37 39 42 44 45 45 46 45 43 43 42 40 37 36 36 36 36 36 36 37 37 38 40 43 45 49